M I D A S
Marine Information and Data Acquisition System
Tripno 1864 of the Zeeleeuw from 2010-04-23 06:30:26 to 2010-04-23 15:38:00
Back to CruiseResearch ActivitiesStationsMapUnderway DataData graphs

EquipmentUnitsComment
TimeDGPSUTC
LatitudeDGPSDM.mWGS84
LongitudeDGPSDM.mWGS84
TemperatureSBE03/SBE38deg celciusITS90
ConductivitySBE21S/mITS90
SalinitySBE21 Practical Salinity Units
ChlorophylAChelsea fluorimeterg/lCalibrated in Aceton
Missing or incorrect values are displayed as -999
Sea surface data collected by the RV Zeeleeuw from 2010-04-23 06:21:22 to 2010-04-23 16:16:10
                                                                                    Next 1000 lines
Time Latitude Longitude Temperature Conductivity Salinity ChlorophylA
2010-04-23 06:21:32 51°13.661 2°55.957 17.5179 0.068596 0.400254 -0.965744
2010-04-23 06:21:37 51°13.662 2°55.955 17.4394 0.068596 0.400268 -0.965744
2010-04-23 06:21:42 51°13.663 2°55.952 17.569 0.068596 0.400275 -0.93092
2010-04-23 06:21:47 51°13.664 2°55.948 17.5498 0.068596 0.400282 -0.965744
2010-04-23 06:21:52 51°13.665 2°55.944 17.5418 0.068596 0.400282 -0.965744
2010-04-23 06:21:57 51°13.667 2°55.939 17.5167 0.068596 0.400282 -0.965744
2010-04-23 06:22:03 51°13.668 2°55.934 17.5178 0.068596 0.400289 -0.965744
2010-04-23 06:22:09 51°13.67 2°55.927 17.5383 0.068596 0.400296 -0.93092
2010-04-23 06:22:14 51°13.672 2°55.921 17.5032 0.068596 0.400303 -0.965744
2010-04-23 06:22:20 51°13.673 2°55.914 17.5395 0.068596 0.40031 -1.000568
2010-04-23 06:22:25 51°13.675 2°55.908 17.5534 0.068596 0.400317 -0.965744
2010-04-23 06:22:31 51°13.677 2°55.9 17.5791 0.068596 0.400317 -0.965744
2010-04-23 06:22:36 51°13.678 2°55.893 17.5554 0.068596 0.400324 -0.965744
2010-04-23 06:22:41 51°13.679 2°55.886 17.5676 0.068596 0.400331 -0.965744
2010-04-23 06:22:45 51°13.68 2°55.88 17.561 0.068596 0.400331 -1.000568
2010-04-23 06:22:51 51°13.682 2°55.872 17.5586 0.068596 0.400331 -0.965744
2010-04-23 06:22:56 51°13.683 2°55.864 17.559 0.068596 0.400331 -1.000568
2010-04-23 06:23:01 51°13.684 2°55.857 17.5767 0.068596 0.400331 -1.000568
2010-04-23 06:23:06 51°13.686 2°55.85 17.5763 0.068596 0.400346 -0.965744
2010-04-23 06:23:11 51°13.686 2°55.843 17.5751 0.068596 0.400346 -0.965744
2010-04-23 06:23:16 51°13.687 2°55.835 17.5748 0.068596 0.400353 -1.000568
2010-04-23 06:23:21 51°13.688 2°55.828 17.5758 0.068596 0.400374 -0.965744
2010-04-23 06:23:26 51°13.688 2°55.821 17.5753 0.068596 0.400381 -1.000568
2010-04-23 06:23:31 51°13.689 2°55.814 17.5741 0.068596 0.400381 -1.000568
2010-04-23 06:23:36 51°13.689 2°55.806 17.5742 0.068596 0.400381 -0.965744
2010-04-23 06:23:41 51°13.69 2°55.799 17.5735 0.068596 0.400388 -0.93092
2010-04-23 06:23:46 51°13.69 2°55.793 17.5741 0.068596 0.400388 -0.965744
2010-04-23 06:23:51 51°13.691 2°55.786 17.5741 0.068492 0.399759 -0.965744
2010-04-23 06:23:56 51°13.691 2°55.781 17.5732 0.068596 0.400402 -0.965744
2010-04-23 06:24:01 51°13.691 2°55.778 17.6304 0.068492 0.399766 -1.000568
2010-04-23 06:24:06 51°13.69 2°55.777 17.6185 0.068492 0.399766 -1.000568
2010-04-23 06:24:11 51°13.691 2°55.776 17.6053 0.068492 0.399766 -0.965744
2010-04-23 06:24:16 51°13.691 2°55.776 17.6027 0.068492 0.399787 -0.965744
2010-04-23 06:24:21 51°13.691 2°55.775 17.6 0.068596 0.400416 -0.965744
2010-04-23 06:24:26 51°13.692 2°55.775 17.5983 0.068492 0.399801 -0.965744
2010-04-23 06:24:31 51°13.692 2°55.776 17.5984 0.068492 0.399801 -0.965744
2010-04-23 06:24:36 51°13.692 2°55.776 17.5947 0.068596 0.400423 -0.965744
2010-04-23 06:24:41 51°13.693 2°55.776 17.5907 0.068492 0.399808 -0.965744
2010-04-23 06:24:46 51°13.693 2°55.776 17.5386 0.068492 0.399794 -0.965744
2010-04-23 06:24:51 51°13.693 2°55.776 17.5737 0.068596 0.40043 -1.000568
2010-04-23 06:24:56 51°13.693 2°55.774 17.4673 0.068492 0.399801 -1.000568
2010-04-23 06:25:01 51°13.692 2°55.773 17.5562 0.068492 0.399801 -1.000568
2010-04-23 06:25:06 51°13.692 2°55.771 17.5536 0.068596 0.40043 -1.000568
2010-04-23 06:25:11 51°13.691 2°55.769 17.5622 0.068596 0.400437 -0.965744
2010-04-23 06:25:16 51°13.69 2°55.766 17.593 0.068492 0.399808 -0.965744
2010-04-23 06:25:21 51°13.689 2°55.764 17.6062 0.068492 0.399815 -1.000568
2010-04-23 06:25:25 51°13.689 2°55.763 17.5926 0.068492 0.399808 -0.965744
2010-04-23 06:25:30 51°13.689 2°55.763 17.6031 0.068492 0.399808 -0.965744
2010-04-23 06:25:36 51°13.69 2°55.763 17.602 0.068596 0.40043 -0.965744
2010-04-23 06:25:41 51°13.692 2°55.763 17.6261 0.068492 0.399794 -0.965744
2010-04-23 06:25:45 51°13.694 2°55.763 17.6434 0.068492 0.399794 -1.000568
2010-04-23 06:25:51 51°13.697 2°55.763 17.6455 0.068492 0.399794 -0.965744
2010-04-23 06:25:56 51°13.699 2°55.762 17.6338 0.068492 0.399794 -1.000568
2010-04-23 06:26:01 51°13.703 2°55.761 17.6578 0.068492 0.399794 -1.000568
2010-04-23 06:26:06 51°13.707 2°55.759 17.6501 0.068492 0.399815 -0.93092
2010-04-23 06:26:11 51°13.71 2°55.755 17.6571 0.068492 0.399815 -0.93092
2010-04-23 06:26:16 51°13.714 2°55.75 17.6362 0.068492 0.399823 -0.965744
2010-04-23 06:26:21 51°13.718 2°55.746 17.5974 0.068492 0.399823 -0.965744
2010-04-23 06:26:26 51°13.724 2°55.741 17.5581 0.068492 0.399815 -0.965744
2010-04-23 06:26:31 51°13.729 2°55.735 17.5556 0.068492 0.399815 -0.965744
2010-04-23 06:26:36 51°13.735 2°55.729 17.4917 0.068492 0.399794 -1.000568
2010-04-23 06:26:41 51°13.741 2°55.723 17.5078 0.068492 0.39978 -0.965744
2010-04-23 06:26:46 51°13.748 2°55.717 17.4786 0.068492 0.399766 -0.965744
2010-04-23 06:26:50 51°13.753 2°55.711 17.4537 0.068492 0.399766 -0.965744
2010-04-23 06:26:56 51°13.761 2°55.704 17.4448 0.068492 0.399766 -0.965744
2010-04-23 06:27:01 51°13.768 2°55.697 17.4364 0.068492 0.399766 -0.965744
2010-04-23 06:27:05 51°13.773 2°55.69 17.4431 0.068492 0.399773 -0.965744
2010-04-23 06:27:11 51°13.781 2°55.682 17.4641 0.068492 0.399801 -1.000568
2010-04-23 06:27:16 51°13.788 2°55.675 17.4654 0.068492 0.399815 -0.965744
2010-04-23 06:27:21 51°13.795 2°55.669 17.4702 0.068492 0.399815 -0.965744
2010-04-23 06:27:25 51°13.801 2°55.664 17.4817 0.068492 0.399815 -0.93092
2010-04-23 06:27:31 51°13.81 2°55.657 17.4845 0.068492 0.399801 -0.965744
2010-04-23 06:27:36 51°13.818 2°55.651 17.4871 0.068492 0.399801 -0.965744
2010-04-23 06:27:41 51°13.826 2°55.645 17.4866 0.068492 0.399794 -0.965744
2010-04-23 06:27:46 51°13.834 2°55.64 17.4829 0.068492 0.399794 -0.965744
2010-04-23 06:27:51 51°13.842 2°55.634 17.4851 0.068492 0.399787 -0.93092
2010-04-23 06:27:56 51°13.85 2°55.629 17.491 0.068492 0.399794 -1.000568
2010-04-23 06:28:01 51°13.859 2°55.624 17.4992 0.068492 0.399794 -1.000568
2010-04-23 06:28:06 51°13.867 2°55.619 17.5073 0.068492 0.399808 -0.93092
2010-04-23 06:28:11 51°13.875 2°55.613 17.5138 0.068492 0.399808 -0.965744
2010-04-23 06:28:16 51°13.884 2°55.609 17.5066 0.068492 0.399815 -0.965744
2010-04-23 06:28:21 51°13.893 2°55.604 17.4983 0.068492 0.399823 -1.000568
2010-04-23 06:28:26 51°13.901 2°55.598 17.5056 0.068492 0.399815 -0.965744
2010-04-23 06:28:31 51°13.911 2°55.594 17.5076 0.068492 0.399815 -0.965744
2010-04-23 06:28:36 51°13.92 2°55.59 17.5139 0.068492 0.39983 -1.000568
2010-04-23 06:28:41 51°13.929 2°55.585 17.5143 0.068492 0.39983 -1.000568
2010-04-23 06:28:46 51°13.938 2°55.581 17.5191 0.068492 0.399844 -0.93092
2010-04-23 06:28:50 51°13.945 2°55.577 17.5157 0.068492 0.399851 -0.965744
2010-04-23 06:28:56 51°13.956 2°55.572 17.5179 0.068492 0.399851 -0.965744
2010-04-23 06:29:01 51°13.965 2°55.567 17.52 0.068492 0.399851 -0.965744
2010-04-23 06:29:05 51°13.972 2°55.563 17.5664 0.068492 0.399858 -0.965744
2010-04-23 06:29:10 51°13.981 2°55.558 17.5668 0.068492 0.399872 -0.965744
2010-04-23 06:29:16 51°13.992 2°55.551 17.5982 0.068492 0.399886 -0.965744
2010-04-23 06:29:21 51°14.001 2°55.544 17.5972 0.068492 0.399886 -1.000568
2010-04-23 06:29:25 51°14.009 2°55.539 17.5926 0.068492 0.399886 -0.93092
2010-04-23 06:29:30 51°14.018 2°55.532 17.5867 0.068492 0.3999 -0.965744
2010-04-23 06:29:35 51°14.028 2°55.524 17.5823 0.068492 0.3999 -0.965744
2010-04-23 06:29:41 51°14.039 2°55.514 17.5628 0.068492 0.3999 -0.93092
2010-04-23 06:29:45 51°14.047 2°55.507 17.548 0.068492 0.399907 -0.965744
2010-04-23 06:29:50 51°14.058 2°55.499 17.5545 0.068492 0.399907 -0.965744
2010-04-23 06:29:55 51°14.068 2°55.489 17.4946 0.068492 0.399928 -0.93092
2010-04-23 06:30:00 51°14.08 2°55.48 17.4577 0.068492 0.399928 -0.93092
2010-04-23 06:30:05 51°14.091 2°55.47 17.4508 0.068492 0.399928 -1.000568
2010-04-23 06:30:10 51°14.103 2°55.46 17.4568 0.068492 0.399935 -0.965744
2010-04-23 06:30:15 51°14.115 2°55.45 17.3931 0.068492 0.399942 -0.93092
2010-04-23 06:30:21 51°14.129 2°55.437 17.3683 0.068492 0.399935 -1.000568
2010-04-23 06:30:25 51°14.139 2°55.428 17.4392 0.068492 0.399935 -0.965744
2010-04-23 06:30:31 51°14.154 2°55.415 17.3737 0.068492 0.399935 -0.965744
2010-04-23 06:30:36 51°14.167 2°55.404 17.4475 0.068492 0.399949 -0.965744
2010-04-23 06:30:41 51°14.18 2°55.392 17.4549 0.068492 0.399949 -1.000568
2010-04-23 06:30:45 51°14.19 2°55.382 17.381 0.068492 0.399963 -0.93092
2010-04-23 06:30:50 51°14.203 2°55.369 17.4815 0.068492 0.399963 -0.965744
2010-04-23 06:30:55 51°14.217 2°55.356 17.3844 0.068492 0.399977 -0.965744
2010-04-23 06:31:01 51°14.233 2°55.341 17.4536 0.068492 0.399977 -0.965744
2010-04-23 06:31:05 51°14.244 2°55.331 17.4536 0.068492 0.399977 -0.965744
2010-04-23 06:31:10 51°14.258 2°55.316 17.3405 0.068492 0.39997 -0.965744
2010-04-23 06:31:15 51°14.271 2°55.302 17.3808 0.068492 0.399984 -0.965744
2010-04-23 06:31:20 51°14.285 2°55.288 17.46 0.068492 0.39997 -0.93092
2010-04-23 06:31:25 51°14.298 2°55.272 17.3544 0.068492 0.399977 -0.965744
2010-04-23 06:31:30 51°14.312 2°55.257 17.3206 0.068492 0.399991 -0.93092
2010-04-23 06:31:35 51°14.326 2°55.241 17.4298 0.068492 0.399991 -0.93092
2010-04-23 06:31:40 51°14.34 2°55.225 17.3721 0.068492 0.399991 -1.000568
2010-04-23 06:31:45 51°14.354 2°55.209 17.4049 0.068492 0.399998 -0.965744
2010-04-23 06:31:50 51°14.37 2°55.195 17.337 0.068492 0.399984 -1.000568
2010-04-23 06:31:55 51°14.385 2°55.179 17.3197 0.068492 0.400005 -0.93092
2010-04-23 06:32:00 51°14.4 2°55.161 17.333 0.068492 0.400005 -0.93092
2010-04-23 06:32:05 51°14.414 2°55.144 17.4072 0.068492 0.399998 -0.965744
2010-04-23 06:32:09 51°14.425 2°55.13 17.3425 0.068492 0.399984 -0.965744
2010-04-23 06:32:14 51°14.44 2°55.112 17.3935 0.068492 0.400012 -0.965744
2010-04-23 06:32:19 51°14.455 2°55.096 17.334 0.068492 0.399998 -0.965744
2010-04-23 06:32:24 51°14.47 2°55.078 17.2816 0.068492 0.400012 -0.965744
2010-04-23 06:32:29 51°14.486 2°55.061 17.3701 0.068492 0.400012 -0.965744
2010-04-23 06:32:34 51°14.501 2°55.044 17.2145 0.068492 0.400012 -1.000568
2010-04-23 06:32:39 51°14.517 2°55.027 17.3758 0.068492 0.400012 -0.93092
2010-04-23 06:32:44 51°14.533 2°55.011 17.4057 0.068492 0.400005 -0.965744
2010-04-23 06:32:49 51°14.55 2°54.995 17.4106 0.068492 0.400005 -0.965744
2010-04-23 06:32:53 51°14.562 2°54.979 17.3322 0.068492 0.400027 -0.965744
2010-04-23 06:32:59 51°14.579 2°54.956 17.2895 0.068492 0.400012 -0.965744
2010-04-23 06:33:04 51°14.594 2°54.937 17.3188 0.068492 0.400012 -0.965744
2010-04-23 06:33:09 51°14.608 2°54.917 17.2979 0.068492 0.400005 -0.965744
2010-04-23 06:33:13 51°14.62 2°54.901 17.2851 0.068492 0.399984 -1.000568
2010-04-23 06:33:18 51°14.635 2°54.881 17.2732 0.068492 0.399977 -0.965744
2010-04-23 06:33:24 51°14.653 2°54.858 17.3147 0.068492 0.399984 -0.965744
2010-04-23 06:33:29 51°14.668 2°54.838 17.2777 0.068492 0.399984 -0.965744
2010-04-23 06:33:33 51°14.68 2°54.822 17.3194 0.068492 0.399991 -0.965744
2010-04-23 06:33:38 51°14.694 2°54.802 17.3242 0.068492 0.400005 -1.000568
2010-04-23 06:33:43 51°14.71 2°54.782 17.3324 0.068492 0.400012 -0.965744
2010-04-23 06:33:49 51°14.727 2°54.757 17.3084 0.068492 0.400027 -0.93092
2010-04-23 06:33:53 51°14.74 2°54.742 17.3148 0.068492 0.400041 -0.965744
2010-04-23 06:33:58 51°14.755 2°54.722 17.2619 0.068492 0.400041 -0.965744
2010-04-23 06:34:03 51°14.77 2°54.701 17.3179 0.068492 0.400034 -1.000568
2010-04-23 06:34:08 51°14.784 2°54.681 17.236 0.068492 0.400027 -1.000568
2010-04-23 06:34:13 51°14.799 2°54.66 17.2686 0.068492 0.400027 -0.93092
2010-04-23 06:34:18 51°14.812 2°54.639 17.2636 0.068492 0.400019 -1.000568
2010-04-23 06:34:22 51°14.825 2°54.624 17.286 0.068492 0.400012 -0.93092
2010-04-23 06:34:28 51°14.842 2°54.6 17.2682 0.068492 0.400012 -0.93092
2010-04-23 06:34:33 51°14.857 2°54.581 17.2585 0.068492 0.400012 -0.965744
2010-04-23 06:34:37 51°14.869 2°54.565 17.2827 0.068492 0.400019 -0.965744
2010-04-23 06:34:42 51°14.885 2°54.546 17.2587 0.068492 0.400019 -0.965744
2010-04-23 06:34:47 51°14.901 2°54.527 17.3001 0.068492 0.400034 -0.965744
2010-04-23 06:34:52 51°14.917 2°54.509 17.2582 0.068492 0.400019 -0.965744
2010-04-23 06:34:57 51°14.933 2°54.491 17.301 0.068492 0.400034 -1.000568
2010-04-23 06:35:02 51°14.949 2°54.473 17.2552 0.068492 0.400034 -1.000568
2010-04-23 06:35:07 51°14.964 2°54.454 17.2877 0.068492 0.400034 -0.965744
2010-04-23 06:35:12 51°14.981 2°54.436 17.2238 0.068492 0.400034 -0.965744
2010-04-23 06:35:17 51°14.997 2°54.418 17.1324 0.068492 0.400048 -0.965744
2010-04-23 06:35:22 51°15.013 2°54.402 17.2382 0.068492 0.400034 -0.965744
2010-04-23 06:35:27 51°15.029 2°54.385 17.1645 0.068492 0.400034 -0.965744
2010-04-23 06:35:32 51°15.045 2°54.369 17.2463 0.068492 0.400041 -0.965744
2010-04-23 06:35:37 51°15.064 2°54.356 17.2082 0.068492 0.400027 -0.965744
2010-04-23 06:35:42 51°15.081 2°54.343 17.254 0.068492 0.400048 -0.965744
2010-04-23 06:35:47 51°15.099 2°54.329 17.2505 0.068492 0.400048 -0.965744
2010-04-23 06:35:52 51°15.118 2°54.315 17.2461 0.068492 0.400048 -0.965744
2010-04-23 06:35:57 51°15.136 2°54.303 17.2243 0.068492 0.400048 -0.965744
2010-04-23 06:36:02 51°15.154 2°54.29 17.2632 0.068492 0.400048 -0.965744
2010-04-23 06:36:07 51°15.173 2°54.278 17.2548 0.068492 0.400048 -1.000568
2010-04-23 06:36:12 51°15.191 2°54.265 17.2578 0.068492 0.400076 -1.000568
2010-04-23 06:36:17 51°15.209 2°54.253 17.251 0.068492 0.400048 -0.93092
2010-04-23 06:36:22 51°15.227 2°54.24 17.1754 0.068492 0.400062 -0.965744
2010-04-23 06:36:27 51°15.245 2°54.227 17.2457 0.068492 0.400062 -0.965744
2010-04-23 06:36:32 51°15.263 2°54.213 17.2354 0.068492 0.400083 -1.000568
2010-04-23 06:36:37 51°15.28 2°54.2 17.2195 0.068492 0.400069 -1.000568
2010-04-23 06:36:42 51°15.298 2°54.185 17.2182 0.068492 0.400076 -0.965744
2010-04-23 06:36:47 51°15.315 2°54.171 17.2288 0.068492 0.400083 -0.965744
2010-04-23 06:36:52 51°15.332 2°54.156 17.2106 0.068492 0.400076 -0.965744
2010-04-23 06:36:57 51°15.35 2°54.142 17.1905 0.068492 0.400076 -0.965744
2010-04-23 06:37:02 51°15.367 2°54.127 17.1837 0.068492 0.400097 -0.965744
2010-04-23 06:37:07 51°15.383 2°54.111 17.2104 0.068492 0.400146 -0.93092
2010-04-23 06:37:12 51°15.4 2°54.096 17.134 0.068492 0.400153 -0.965744
2010-04-23 06:37:17 51°15.418 2°54.082 17.1863 0.068492 0.400167 -0.965744
2010-04-23 06:37:22 51°15.436 2°54.069 17.1423 0.068492 0.400111 -0.965744
2010-04-23 06:37:27 51°15.455 2°54.056 17.1483 0.068492 0.400111 -0.965744
2010-04-23 06:37:32 51°15.473 2°54.045 17.1699 0.068492 0.400062 -0.93092
2010-04-23 06:37:37 51°15.491 2°54.032 17.1317 0.068492 0.400005 -1.000568
2010-04-23 06:37:42 51°15.51 2°54.021 17.1714 0.068492 0.399984 -0.93092
2010-04-23 06:37:47 51°15.528 2°54.01 17.1399 0.068492 0.400005 -0.965744
2010-04-23 06:37:52 51°15.545 2°54.001 17.1583 0.068492 0.400027 -0.965744
2010-04-23 06:37:57 51°15.564 2°53.99 17.1642 0.068492 0.400027 -0.965744
2010-04-23 06:38:02 51°15.584 2°53.98 17.1176 0.068492 0.400069 -0.965744
2010-04-23 06:38:07 51°15.603 2°53.97 17.1551 0.068492 0.400104 -0.965744
2010-04-23 06:38:12 51°15.622 2°53.961 17.1762 0.068492 0.400125 -0.965744
2010-04-23 06:38:17 51°15.641 2°53.952 17.1546 0.068492 0.400132 -0.965744
2010-04-23 06:38:21 51°15.657 2°53.945 17.1126 0.068492 0.400118 -0.965744
2010-04-23 06:38:27 51°15.679 2°53.934 17.1553 0.068492 0.400104 -1.000568
2010-04-23 06:38:32 51°15.698 2°53.925 17.1606 0.068492 0.400104 -1.000568
2010-04-23 06:38:37 51°15.717 2°53.916 17.1312 0.068492 0.400083 -1.000568
2010-04-23 06:38:41 51°15.732 2°53.909 17.1544 0.068492 0.400083 -0.965744
2010-04-23 06:38:47 51°15.755 2°53.898 17.1685 0.068492 0.400076 -0.965744
2010-04-23 06:38:52 51°15.773 2°53.889 17.1568 0.068492 0.400083 -1.000568
2010-04-23 06:38:57 51°15.791 2°53.88 17.144 0.068492 0.400083 -1.000568
2010-04-23 06:39:02 51°15.81 2°53.871 17.1676 0.068492 0.400104 -0.93092
2010-04-23 06:39:07 51°15.829 2°53.862 17.154 0.068492 0.400111 -0.965744
2010-04-23 06:39:12 51°15.849 2°53.851 17.1725 0.068492 0.400132 -0.965744
2010-04-23 06:39:17 51°15.869 2°53.841 17.0933 0.068492 0.400125 -0.965744
2010-04-23 06:39:21 51°15.884 2°53.834 17.1463 0.068492 0.400125 -0.965744
2010-04-23 06:39:27 51°15.907 2°53.823 17.1716 0.068492 0.400125 -0.965744
2010-04-23 06:39:32 51°15.926 2°53.814 17.1668 0.068492 0.400111 -0.965744
2010-04-23 06:39:37 51°15.943 2°53.802 17.135 0.068492 0.400104 -1.000568
2010-04-23 06:39:42 51°15.96 2°53.79 17.1273 0.068492 0.400118 -0.965744
2010-04-23 06:39:47 51°15.978 2°53.779 17.1467 0.068492 0.400111 -1.000568
2010-04-23 06:39:52 51°15.997 2°53.768 17.1692 0.068492 0.400118 -1.000568
2010-04-23 06:39:57 51°16.017 2°53.758 17.0941 0.068492 0.400118 -1.000568
2010-04-23 06:40:02 51°16.036 2°53.746 17.1596 0.068492 0.400118 -0.965744
2010-04-23 06:40:07 51°16.055 2°53.734 17.1235 0.068492 0.400111 -0.965744
2010-04-23 06:40:12 51°16.073 2°53.722 17.15 0.068492 0.400125 -0.965744
2010-04-23 06:40:17 51°16.091 2°53.71 17.1064 0.068492 0.400118 -0.93092
2010-04-23 06:40:21 51°16.105 2°53.7 17.1511 0.068492 0.400132 -0.93092
2010-04-23 06:40:27 51°16.127 2°53.685 17.0891 0.068492 0.400125 -0.93092
2010-04-23 06:40:32 51°16.145 2°53.672 17.1522 0.068492 0.400125 -0.93092
2010-04-23 06:40:37 51°16.163 2°53.659 17.1263 0.068492 0.400139 -0.965744
2010-04-23 06:40:41 51°16.177 2°53.648 17.154 0.068492 0.400146 -0.965744
2010-04-23 06:40:47 51°16.198 2°53.632 17.0807 0.068492 0.400153 -0.965744
2010-04-23 06:40:52 51°16.216 2°53.618 17.1378 0.068492 0.400146 -0.965744
2010-04-23 06:40:57 51°16.233 2°53.603 17.1154 0.068492 0.400146 -0.965744
2010-04-23 06:41:02 51°16.25 2°53.589 17.1108 0.068492 0.400146 -0.965744
2010-04-23 06:41:07 51°16.267 2°53.574 17.1328 0.068492 0.400153 -0.93092
2010-04-23 06:41:12 51°16.284 2°53.559 17.1002 0.068492 0.400146 -0.965744
2010-04-23 06:41:17 51°16.301 2°53.545 17.132 0.068492 0.400146 -0.965744
2010-04-23 06:41:22 51°16.319 2°53.53 17.127 0.068492 0.400153 -1.000568
2010-04-23 06:41:27 51°16.334 2°53.517 17.088 0.068492 0.400153 -1.000568
2010-04-23 06:41:32 51°16.351 2°53.503 17.1196 0.068492 0.400146 -0.965744
2010-04-23 06:41:37 51°16.369 2°53.487 17.1407 0.068492 0.400153 -0.965744
2010-04-23 06:41:42 51°16.388 2°53.471 17.1297 0.068492 0.400153 -0.965744
2010-04-23 06:41:47 51°16.404 2°53.455 17.1448 0.068492 0.40016 -0.965744
2010-04-23 06:41:52 51°16.422 2°53.44 17.1342 0.068492 0.40016 -0.965744
2010-04-23 06:41:57 51°16.437 2°53.426 17.1373 0.068492 0.40016 -0.965744
2010-04-23 06:42:02 51°16.453 2°53.413 17.1173 0.068492 0.400167 -0.965744
2010-04-23 06:42:07 51°16.469 2°53.398 17.1291 0.068492 0.400167 -0.965744
2010-04-23 06:42:12 51°16.487 2°53.384 17.125 0.068492 0.400174 -0.965744
2010-04-23 06:42:17 51°16.504 2°53.369 17.1335 0.068492 0.400181 -0.965744
2010-04-23 06:42:22 51°16.522 2°53.355 17.1056 0.068492 0.400181 -0.965744
2010-04-23 06:42:27 51°16.539 2°53.34 17.1393 0.068492 0.400181 -0.965744
2010-04-23 06:42:32 51°16.557 2°53.327 17.1238 0.068492 0.400188 -0.965744
2010-04-23 06:42:37 51°16.575 2°53.313 17.119 0.068492 0.400181 -1.000568
2010-04-23 06:42:41 51°16.588 2°53.301 17.1471 0.068596 0.400818 -0.965744
2010-04-23 06:42:47 51°16.609 2°53.283 17.1423 0.068492 0.400196 -1.000568
2010-04-23 06:42:52 51°16.626 2°53.269 17.146 0.068492 0.400203 -0.965744
2010-04-23 06:42:57 51°16.643 2°53.254 17.0847 0.068492 0.400203 -0.965744
2010-04-23 06:43:02 51°16.66 2°53.24 17.1234 0.068492 0.400196 -0.93092
2010-04-23 06:43:07 51°16.677 2°53.225 17.1385 0.068492 0.40021 -0.965744
2010-04-23 06:43:12 51°16.695 2°53.211 17.1301 0.068492 0.400203 -1.000568
2010-04-23 06:43:17 51°16.712 2°53.197 17.1429 0.068492 0.400217 -1.000568
2010-04-23 06:43:22 51°16.729 2°53.183 17.1291 0.068492 0.40021 -0.965744
2010-04-23 06:43:27 51°16.746 2°53.168 17.1418 0.068492 0.40021 -0.965744
2010-04-23 06:43:32 51°16.764 2°53.153 17.078 0.068492 0.400224 -1.000568
2010-04-23 06:43:37 51°16.78 2°53.138 17.1062 0.068492 0.400224 -1.000568
2010-04-23 06:43:42 51°16.797 2°53.124 17.1304 0.068492 0.400224 -0.965744
2010-04-23 06:43:47 51°16.815 2°53.11 17.1247 0.068492 0.400231 -0.965744
2010-04-23 06:43:52 51°16.832 2°53.095 17.1252 0.068492 0.400231 -0.965744
2010-04-23 06:43:57 51°16.849 2°53.081 17.1187 0.068492 0.400231 -0.965744
2010-04-23 06:44:02 51°16.866 2°53.066 17.1052 0.068596 0.400867 -0.965744
2010-04-23 06:44:07 51°16.882 2°53.051 17.1269 0.068492 0.400245 -0.965744
2010-04-23 06:44:12 51°16.899 2°53.035 17.1232 0.068492 0.400259 -0.965744
2010-04-23 06:44:17 51°16.915 2°53.02 17.1175 0.068596 0.400888 -0.965744
2010-04-23 06:44:22 51°16.931 2°53.004 17.138 0.068492 0.400266 -0.965744
2010-04-23 06:44:27 51°16.948 2°52.988 17.1496 0.068492 0.400266 -0.965744
2010-04-23 06:44:32 51°16.964 2°52.971 17.1309 0.068596 0.400902 -0.93092
2010-04-23 06:44:37 51°16.98 2°52.954 17.1392 0.068492 0.400273 -0.965744
2010-04-23 06:44:42 51°16.996 2°52.937 17.1372 0.068492 0.400266 -0.965744
2010-04-23 06:44:47 51°17.012 2°52.92 17.1329 0.068492 0.400287 -0.965744
2010-04-23 06:44:52 51°17.028 2°52.902 17.1322 0.068492 0.40028 -1.000568
2010-04-23 06:44:57 51°17.044 2°52.885 17.109 0.068492 0.40028 -1.000568
2010-04-23 06:45:02 51°17.061 2°52.867 17.1055 0.068492 0.400287 -1.000568
2010-04-23 06:45:07 51°17.077 2°52.85 17.086 0.068596 0.400916 -1.000568
2010-04-23 06:45:12 51°17.094 2°52.835 17.1302 0.068492 0.400294 -0.965744
2010-04-23 06:45:17 51°17.11 2°52.819 17.051 0.068492 0.400308 -0.965744
2010-04-23 06:45:22 51°17.128 2°52.804 17.0804 0.068596 0.400924 -1.000568
2010-04-23 06:45:27 51°17.145 2°52.789 17.0584 0.068596 0.400924 -1.000568
2010-04-23 06:45:32 51°17.163 2°52.774 17.0625 0.068492 0.400336 -0.965744
2010-04-23 06:45:37 51°17.18 2°52.76 17.0017 0.068492 0.400329 -0.965744
2010-04-23 06:45:42 51°17.197 2°52.746 17.0196 0.068492 0.400365 -0.965744
2010-04-23 06:45:47 51°17.216 2°52.736 16.9986 0.068492 0.400336 -0.965744
2010-04-23 06:45:52 51°17.235 2°52.723 17.0337 0.068596 0.400987 -1.000568
2010-04-23 06:45:57 51°17.254 2°52.716 17.0285 0.068596 0.400987 -1.000568
2010-04-23 06:46:02 51°17.273 2°52.705 17.0378 0.068596 0.400966 -0.965744
2010-04-23 06:46:07 51°17.292 2°52.697 17.0376 0.068492 0.400336 -1.000568
2010-04-23 06:46:12 51°17.311 2°52.688 17.0395 0.068492 0.400344 -0.965744
2010-04-23 06:46:17 51°17.331 2°52.682 17.0403 0.068596 0.400966 -0.965744
2010-04-23 06:46:22 51°17.35 2°52.674 17.0344 0.068492 0.400365 -0.965744
2010-04-23 06:46:27 51°17.37 2°52.668 17.0596 0.068492 0.400365 -0.965744
2010-04-23 06:46:32 51°17.389 2°52.661 17.056 0.068492 0.400365 -0.93092
2010-04-23 06:46:37 51°17.409 2°52.655 17.0624 0.068596 0.401037 -0.965744
2010-04-23 06:46:42 51°17.429 2°52.649 17.0507 0.068492 0.400421 -0.965744
2010-04-23 06:46:47 51°17.449 2°52.643 17.053 0.068596 0.401058 -1.000568
2010-04-23 06:46:52 51°17.469 2°52.637 17.0562 0.068492 0.400442 -1.000568
2010-04-23 06:46:57 51°17.489 2°52.632 17.0588 0.068492 0.400442 -1.000568
2010-04-23 06:47:02 51°17.509 2°52.627 17.0395 0.068596 0.401058 -1.000568
2010-04-23 06:47:07 51°17.529 2°52.623 17.0638 0.068492 0.400435 -0.965744
2010-04-23 06:47:12 51°17.549 2°52.619 17.0549 0.068596 0.401051 -1.000568
2010-04-23 06:47:17 51°17.569 2°52.615 17.062 0.068492 0.400421 -0.93092
2010-04-23 06:47:21 51°17.585 2°52.612 17.0751 0.068492 0.400435 -0.965744
2010-04-23 06:47:27 51°17.609 2°52.607 17.0608 0.068492 0.400428 -0.965744
2010-04-23 06:47:32 51°17.63 2°52.604 17.0735 0.068492 0.400428 -0.965744
2010-04-23 06:47:37 51°17.65 2°52.6 17.085 0.068492 0.400456 -0.93092
2010-04-23 06:47:41 51°17.666 2°52.596 17.0692 0.068596 0.401093 -1.000568
2010-04-23 06:47:47 51°17.69 2°52.591 17.071 0.068492 0.400478 -0.965744
2010-04-23 06:47:52 51°17.71 2°52.587 17.0812 0.068492 0.400492 -0.965744
2010-04-23 06:47:57 51°17.73 2°52.583 17.0876 0.068492 0.400492 -0.965744
2010-04-23 06:48:02 51°17.75 2°52.578 17.0829 0.068492 0.400492 -0.965744
2010-04-23 06:48:07 51°17.77 2°52.575 17.0823 0.068596 0.401128 -0.965744
2010-04-23 06:48:12 51°17.79 2°52.57 17.0688 0.068492 0.400506 -0.965744
2010-04-23 06:48:17 51°17.81 2°52.566 17.0681 0.068596 0.401135 -0.965744
2010-04-23 06:48:22 51°17.83 2°52.562 17.0838 0.068596 0.401135 -1.000568
2010-04-23 06:48:27 51°17.85 2°52.557 17.0805 0.068596 0.401135 -1.000568
2010-04-23 06:48:32 51°17.871 2°52.552 17.088 0.068596 0.40115 -0.965744
2010-04-23 06:48:37 51°17.891 2°52.548 17.097 0.068596 0.40115 -0.965744
2010-04-23 06:48:42 51°17.911 2°52.544 17.0915 0.068596 0.401171 -0.965744
2010-04-23 06:48:47 51°17.931 2°52.539 17.0982 0.068596 0.401164 -0.965744
2010-04-23 06:48:52 51°17.952 2°52.535 17.0975 0.068596 0.401185 -1.000568
2010-04-23 06:48:57 51°17.972 2°52.53 17.0894 0.068596 0.401185 -1.000568
2010-04-23 06:49:02 51°17.992 2°52.525 17.1045 0.068492 0.400576 -0.965744
2010-04-23 06:49:07 51°18.012 2°52.52 17.106 0.068596 0.401213 -0.965744
2010-04-23 06:49:12 51°18.032 2°52.515 17.0982 0.068492 0.400591 -0.965744
2010-04-23 06:49:17 51°18.052 2°52.511 17.1066 0.068492 0.400598 -1.000568
2010-04-23 06:49:21 51°18.068 2°52.507 17.0891 0.068596 0.401227 -0.965744
2010-04-23 06:49:27 51°18.092 2°52.502 17.1089 0.068596 0.401227 -0.965744
2010-04-23 06:49:32 51°18.113 2°52.498 17.0934 0.068596 0.401234 -0.965744
2010-04-23 06:49:37 51°18.132 2°52.493 17.0982 0.068596 0.401249 -0.965744
2010-04-23 06:49:41 51°18.148 2°52.489 17.1129 0.068596 0.401256 -0.93092
2010-04-23 06:49:47 51°18.172 2°52.483 17.1052 0.068492 0.400647 -0.965744
2010-04-23 06:49:52 51°18.192 2°52.478 17.1165 0.068596 0.401277 -0.965744
2010-04-23 06:49:57 51°18.212 2°52.473 17.0843 0.068596 0.401277 -0.965744
2010-04-23 06:50:02 51°18.232 2°52.469 17.1156 0.068596 0.401291 -0.965744
2010-04-23 06:50:07 51°18.252 2°52.464 17.1071 0.068596 0.401291 -1.000568
2010-04-23 06:50:12 51°18.272 2°52.459 17.1162 0.068596 0.401298 -0.93092
2010-04-23 06:50:17 51°18.292 2°52.454 17.0954 0.068596 0.401319 -1.000568
2010-04-23 06:50:22 51°18.312 2°52.449 17.1187 0.068596 0.401326 -1.000568
2010-04-23 06:50:27 51°18.332 2°52.445 17.103 0.068596 0.401326 -1.000568
2010-04-23 06:50:32 51°18.352 2°52.439 17.1105 0.068596 0.401341 -0.965744
2010-04-23 06:50:37 51°18.372 2°52.435 17.1148 0.068596 0.401341 -1.000568
2010-04-23 06:50:42 51°18.392 2°52.43 17.1243 0.068596 0.401362 -0.965744
2010-04-23 06:50:47 51°18.412 2°52.426 17.1026 0.068596 0.401355 -0.965744
2010-04-23 06:50:52 51°18.432 2°52.42 17.1052 0.068596 0.401383 -0.965744
2010-04-23 06:50:57 51°18.452 2°52.416 17.1107 0.068596 0.401383 -0.965744
2010-04-23 06:51:02 51°18.471 2°52.41 17.1068 0.068596 0.401383 -0.965744
2010-04-23 06:51:07 51°18.492 2°52.406 17.1101 0.068596 0.401397 -0.93092
2010-04-23 06:51:12 51°18.511 2°52.401 17.1068 0.068596 0.401397 -1.000568
2010-04-23 06:51:17 51°18.531 2°52.396 17.1305 0.068596 0.401418 -0.965744
2010-04-23 06:51:22 51°18.551 2°52.392 17.1203 0.068596 0.401418 -0.965744
2010-04-23 06:51:27 51°18.571 2°52.387 17.1361 0.068596 0.401418 -0.965744
2010-04-23 06:51:32 51°18.591 2°52.382 17.1278 0.068596 0.401426 -1.000568
2010-04-23 06:51:37 51°18.611 2°52.377 17.1135 0.068596 0.401433 -1.000568
2010-04-23 06:51:41 51°18.627 2°52.373 17.1367 0.068596 0.401447 -0.965744
2010-04-23 06:51:47 51°18.651 2°52.367 17.1353 0.068596 0.401461 -1.000568
2010-04-23 06:51:52 51°18.671 2°52.362 17.1193 0.068596 0.401468 -0.965744
2010-04-23 06:51:57 51°18.691 2°52.357 17.1297 0.068596 0.401468 -0.965744
2010-04-23 06:52:02 51°18.711 2°52.353 17.112 0.068596 0.401475 -0.965744
2010-04-23 06:52:07 51°18.73 2°52.347 17.1411 0.068596 0.401489 -0.965744
2010-04-23 06:52:12 51°18.75 2°52.343 17.1378 0.068596 0.401503 -0.965744
2010-04-23 06:52:17 51°18.77 2°52.338 17.137 0.068596 0.401518 -1.000568
2010-04-23 06:52:22 51°18.79 2°52.333 17.1449 0.068596 0.401525 -0.965744
2010-04-23 06:52:27 51°18.81 2°52.329 17.1337 0.068596 0.401525 -0.965744
2010-04-23 06:52:32 51°18.83 2°52.324 17.1437 0.068596 0.401532 -0.93092
2010-04-23 06:52:37 51°18.85 2°52.32 17.1271 0.068596 0.401539 -0.965744
2010-04-23 06:52:42 51°18.87 2°52.315 17.1437 0.068596 0.401546 -0.965744
2010-04-23 06:52:47 51°18.889 2°52.31 17.1261 0.068596 0.40156 -1.000568
2010-04-23 06:52:52 51°18.909 2°52.304 17.1387 0.068596 0.401581 -0.93092
2010-04-23 06:52:57 51°18.929 2°52.299 17.1443 0.068596 0.401581 -0.93092
2010-04-23 06:53:02 51°18.948 2°52.294 17.1423 0.068596 0.401581 -0.965744
2010-04-23 06:53:07 51°18.968 2°52.29 17.15 0.068596 0.401596 -0.965744
2010-04-23 06:53:12 51°18.988 2°52.285 17.1526 0.068596 0.401603 -1.000568
2010-04-23 06:53:17 51°19.008 2°52.28 17.1563 0.068596 0.401617 -0.93092
2010-04-23 06:53:22 51°19.028 2°52.276 17.1407 0.068596 0.401624 -1.000568
2010-04-23 06:53:27 51°19.048 2°52.271 17.1531 0.068596 0.401624 -1.000568
2010-04-23 06:53:32 51°19.068 2°52.266 17.1466 0.068596 0.401645 -0.965744
2010-04-23 06:53:37 51°19.088 2°52.261 17.1476 0.068596 0.401652 -0.965744
2010-04-23 06:53:42 51°19.108 2°52.257 17.1584 0.068596 0.401659 -0.93092
2010-04-23 06:53:47 51°19.127 2°52.251 17.1655 0.068596 0.401681 -0.965744
2010-04-23 06:53:52 51°19.147 2°52.246 17.1642 0.068596 0.401688 -0.965744
2010-04-23 06:53:57 51°19.167 2°52.24 17.1512 0.068596 0.401688 -0.965744
2010-04-23 06:54:01 51°19.182 2°52.236 17.1571 0.068596 0.401702 -1.000568
2010-04-23 06:54:07 51°19.207 2°52.23 17.1562 0.068596 0.401709 -0.93092
2010-04-23 06:54:12 51°19.227 2°52.224 17.1694 0.068596 0.401723 -0.965744
2010-04-23 06:54:17 51°19.246 2°52.219 17.17 0.068596 0.401737 -0.965744
2010-04-23 06:54:21 51°19.262 2°52.215 17.1549 0.068596 0.401737 -1.000568
2010-04-23 06:54:27 51°19.286 2°52.209 17.1617 0.068596 0.401737 -1.000568
2010-04-23 06:54:32 51°19.306 2°52.203 17.1709 0.068596 0.401759 -0.965744
2010-04-23 06:54:37 51°19.326 2°52.198 17.1518 0.068596 0.401759 -0.965744
2010-04-23 06:54:41 51°19.342 2°52.194 17.1669 0.068596 0.401773 -1.000568
2010-04-23 06:54:47 51°19.366 2°52.188 17.1755 0.068596 0.40178 -0.93092
2010-04-23 06:54:52 51°19.386 2°52.183 17.1642 0.068596 0.401794 -1.000568
2010-04-23 06:54:57 51°19.406 2°52.178 17.1711 0.068596 0.401815 -0.965744
2010-04-23 06:55:02 51°19.426 2°52.174 17.1536 0.068596 0.401815 -0.965744
2010-04-23 06:55:07 51°19.446 2°52.169 17.1777 0.068596 0.401823 -0.965744
2010-04-23 06:55:12 51°19.466 2°52.164 17.1752 0.068596 0.40183 -1.000568
2010-04-23 06:55:17 51°19.487 2°52.159 17.1663 0.068596 0.401844 -0.965744
2010-04-23 06:55:21 51°19.503 2°52.155 17.1711 0.068596 0.401844 -0.93092
2010-04-23 06:55:27 51°19.527 2°52.15 17.1807 0.068596 0.401844 -0.93092
2010-04-23 06:55:32 51°19.547 2°52.145 17.1636 0.068596 0.401858 -0.965744
2010-04-23 06:55:37 51°19.567 2°52.14 17.1783 0.068596 0.401865 -1.000568
2010-04-23 06:55:41 51°19.584 2°52.136 17.1822 0.068596 0.401879 -0.965744
2010-04-23 06:55:47 51°19.608 2°52.13 17.1923 0.068596 0.401894 -0.965744
2010-04-23 06:55:52 51°19.628 2°52.124 17.1944 0.068596 0.401901 -0.965744
2010-04-23 06:55:57 51°19.648 2°52.119 17.1839 0.068596 0.401901 -0.965744
2010-04-23 06:56:02 51°19.667 2°52.11 17.1912 0.068596 0.401915 -1.000568
2010-04-23 06:56:07 51°19.687 2°52.102 17.1939 0.068596 0.401943 -0.965744
2010-04-23 06:56:12 51°19.706 2°52.091 17.1847 0.068596 0.401965 -0.965744
2010-04-23 06:56:17 51°19.725 2°52.081 17.1857 0.068596 0.401965 -0.965744
2010-04-23 06:56:21 51°19.74 2°52.071 17.1844 0.068596 0.401986 -0.965744
2010-04-23 06:56:27 51°19.763 2°52.058 17.1937 0.068596 0.401972 -0.965744
2010-04-23 06:56:32 51°19.782 2°52.046 17.1785 0.068596 0.401972 -0.965744
2010-04-23 06:56:37 51°19.8 2°52.033 17.192 0.068596 0.401993 -0.965744
2010-04-23 06:56:41 51°19.815 2°52.023 17.1849 0.068596 0.401986 -0.965744
2010-04-23 06:56:47 51°19.837 2°52.007 17.1877 0.068596 0.402007 -1.000568
2010-04-23 06:56:52 51°19.855 2°51.993 17.1893 0.068596 0.402014 -0.965744
2010-04-23 06:56:57 51°19.873 2°51.979 17.171 0.068596 0.402014 -0.965744
2010-04-23 06:57:01 51°19.887 2°51.968 17.1949 0.068596 0.402029 -0.965744
2010-04-23 06:57:07 51°19.908 2°51.95 17.1797 0.068596 0.402036 -0.965744
2010-04-23 06:57:12 51°19.926 2°51.934 17.1835 0.068596 0.402057 -0.965744
2010-04-23 06:57:17 51°19.943 2°51.919 17.1848 0.068596 0.402064 -0.965744
2010-04-23 06:57:21 51°19.957 2°51.906 17.1928 0.068596 0.402085 -0.965744
2010-04-23 06:57:27 51°19.977 2°51.887 17.1929 0.068596 0.402085 -0.965744
2010-04-23 06:57:32 51°19.995 2°51.871 17.1933 0.068596 0.4021 -0.965744
2010-04-23 06:57:37 51°20.012 2°51.855 17.1718 0.068596 0.4021 -1.000568
2010-04-23 06:57:41 51°20.025 2°51.841 17.1987 0.068596 0.402114 -0.965744
2010-04-23 06:57:47 51°20.045 2°51.821 17.1736 0.068596 0.402114 -1.000568
2010-04-23 06:57:52 51°20.062 2°51.804 17.1919 0.068596 0.402128 -1.000568
2010-04-23 06:57:57 51°20.079 2°51.788 17.2011 0.068596 0.402128 -1.000568
2010-04-23 06:58:01 51°20.093 2°51.775 17.2105 0.068596 0.402142 -1.000568
2010-04-23 06:58:07 51°20.112 2°51.753 17.2133 0.068596 0.402149 -0.965744
2010-04-23 06:58:12 51°20.129 2°51.737 17.1974 0.068596 0.402156 -0.965744
2010-04-23 06:58:17 51°20.144 2°51.717 17.215 0.068596 0.402199 -0.965744
2010-04-23 06:58:21 51°20.157 2°51.702 17.2044 0.068596 0.402199 -0.93092
2010-04-23 06:58:27 51°20.176 2°51.68 17.1909 0.068596 0.402199 -0.93092
2010-04-23 06:58:32 51°20.191 2°51.66 17.2105 0.068596 0.40222 -0.965744
2010-04-23 06:58:37 51°20.206 2°51.641 17.2106 0.068596 0.40222 -0.965744
2010-04-23 06:58:41 51°20.218 2°51.625 17.2164 0.068596 0.402242 -0.93092
2010-04-23 06:58:46 51°20.232 2°51.604 17.2114 0.068596 0.402235 -0.965744
2010-04-23 06:58:52 51°20.25 2°51.58 17.2054 0.068596 0.402249 -0.965744
2010-04-23 06:58:57 51°20.264 2°51.559 17.2057 0.068596 0.402249 -0.965744
2010-04-23 06:59:01 51°20.276 2°51.543 17.2156 0.068596 0.402249 -0.965744
2010-04-23 06:59:06 51°20.291 2°51.523 17.2044 0.068596 0.402256 -0.93092
2010-04-23 06:59:12 51°20.307 2°51.498 17.2075 0.068596 0.402277 -0.965744
2010-04-23 06:59:17 51°20.322 2°51.477 17.2172 0.068596 0.402277 -1.000568
2010-04-23 06:59:21 51°20.333 2°51.46 17.2173 0.068596 0.402299 -0.965744
2010-04-23 06:59:27 51°20.351 2°51.436 17.2007 0.068596 0.402299 -0.965744
2010-04-23 06:59:32 51°20.365 2°51.415 17.2161 0.068596 0.402306 -0.965744
2010-04-23 06:59:37 51°20.38 2°51.394 17.2045 0.068596 0.40232 -0.965744
2010-04-23 06:59:41 51°20.391 2°51.378 17.2216 0.068596 0.402341 -0.965744
2010-04-23 06:59:47 51°20.409 2°51.354 17.209 0.068596 0.402349 -0.965744
2010-04-23 06:59:52 51°20.424 2°51.335 17.1999 0.068596 0.40237 -0.965744
2010-04-23 06:59:57 51°20.438 2°51.314 17.2126 0.068596 0.40237 -0.965744
2010-04-23 07:00:01 51°20.45 2°51.299 17.2061 0.068596 0.402384 -1.000568
2010-04-23 07:00:07 51°20.469 2°51.275 17.2086 0.068596 0.402377 -0.965744
2010-04-23 07:00:12 51°20.484 2°51.256 17.2072 0.068596 0.402391 -0.965744
2010-04-23 07:00:17 51°20.499 2°51.237 17.2045 0.068596 0.402406 -0.965744
2010-04-23 07:00:21 51°20.512 2°51.222 17.2243 0.068596 0.402406 -1.000568
2010-04-23 07:00:27 51°20.53 2°51.199 17.2093 0.068596 0.402406 -1.000568
2010-04-23 07:00:32 51°20.546 2°51.18 17.2291 0.068596 0.402448 -0.965744
2010-04-23 07:00:37 51°20.562 2°51.162 17.2244 0.068596 0.402427 -0.965744
2010-04-23 07:00:41 51°20.575 2°51.148 17.2116 0.068596 0.40247 -0.965744
2010-04-23 07:00:47 51°20.594 2°51.126 17.2235 0.068596 0.402463 -0.965744
2010-04-23 07:00:52 51°20.61 2°51.108 17.2281 0.068596 0.402477 -1.000568
2010-04-23 07:00:57 51°20.625 2°51.089 17.2312 0.068596 0.402477 -1.000568
2010-04-23 07:01:01 51°20.638 2°51.074 17.2316 0.068596 0.402491 -0.965744
2010-04-23 07:01:07 51°20.657 2°51.051 17.2221 0.068596 0.402498 -0.965744
2010-04-23 07:01:12 51°20.672 2°51.032 17.2405 0.068596 0.40252 -0.965744
2010-04-23 07:01:17 51°20.688 2°51.014 17.2354 0.068596 0.402541 -0.965744
2010-04-23 07:01:21 51°20.701 2°51 17.2311 0.068596 0.402541 -0.965744
2010-04-23 07:01:27 51°20.72 2°50.977 17.2178 0.068596 0.402541 -0.965744
2010-04-23 07:01:32 51°20.736 2°50.959 17.1597 0.068596 0.402555 -0.93092
2010-04-23 07:01:37 51°20.752 2°50.941 17.3627 0.068596 0.402548 -1.000568
2010-04-23 07:01:41 51°20.765 2°50.926 17.6432 0.068596 0.402569 -0.965744
2010-04-23 07:01:47 51°20.783 2°50.904 17.6051 0.068596 0.402577 -0.965744
2010-04-23 07:01:52 51°20.799 2°50.885 17.5802 0.068596 0.402584 -0.965744
2010-04-23 07:01:57 51°20.814 2°50.866 17.5185 0.068596 0.402591 -0.965744
2010-04-23 07:02:02 51°20.83 2°50.847 17.4885 0.068596 0.402591 -0.965744
2010-04-23 07:02:07 51°20.846 2°50.829 17.4784 0.068596 0.402619 -1.000568
2010-04-23 07:02:12 51°20.862 2°50.811 17.4652 0.068596 0.402612 -1.000568
2010-04-23 07:02:17 51°20.878 2°50.792 17.44 0.068596 0.402626 -0.965744
2010-04-23 07:02:22 51°20.894 2°50.773 17.4373 0.0687 0.403273 -0.965744
2010-04-23 07:02:27 51°20.909 2°50.754 17.4211 0.0687 0.403273 -0.965744
2010-04-23 07:02:32 51°20.926 2°50.736 17.4236 0.068596 0.402648 -0.965744
2010-04-23 07:02:37 51°20.942 2°50.718 17.399 0.068596 0.402662 -1.000568
2010-04-23 07:02:41 51°20.955 2°50.704 17.3981 0.0687 0.403301 -1.000568
2010-04-23 07:02:47 51°20.974 2°50.681 17.3984 0.068596 0.402683 -1.000568
2010-04-23 07:02:52 51°20.99 2°50.663 17.4056 0.0687 0.403323 -0.965744
2010-04-23 07:02:57 51°21.006 2°50.644 17.3997 0.0687 0.403323 -0.965744
2010-04-23 07:03:01 51°21.019 2°50.629 17.3991 0.068596 0.402698 -0.965744
2010-04-23 07:03:07 51°21.038 2°50.607 17.3923 0.068596 0.402712 -0.965744
2010-04-23 07:03:12 51°21.055 2°50.589 17.394 0.0687 0.403344 -0.965744
2010-04-23 07:03:17 51°21.071 2°50.571 17.3948 0.068596 0.402726 -0.965744
2010-04-23 07:03:21 51°21.084 2°50.556 17.3958 0.068596 0.402741 -0.965744
2010-04-23 07:03:27 51°21.103 2°50.535 17.3906 0.068596 0.402741 -0.965744
2010-04-23 07:03:32 51°21.119 2°50.516 17.3907 0.068596 0.402741 -1.000568
2010-04-23 07:03:37 51°21.135 2°50.497 17.3915 0.0687 0.403394 -1.000568
2010-04-23 07:03:41 51°21.148 2°50.482 17.393 0.0687 0.403387 -0.965744
2010-04-23 07:03:47 51°21.167 2°50.459 17.3878 0.0687 0.403409 -0.965744
2010-04-23 07:03:52 51°21.183 2°50.442 17.3929 0.0687 0.403409 -0.965744
2010-04-23 07:03:57 51°21.199 2°50.424 17.3894 0.0687 0.403409 -0.965744
2010-04-23 07:04:02 51°21.216 2°50.405 17.3954 0.0687 0.40343 -0.965744
2010-04-23 07:04:07 51°21.232 2°50.387 17.3882 0.0687 0.403423 -0.93092
2010-04-23 07:04:07 51°21.232 2°50.387 17.3882 0.0687 0.403423 -0.93092
2010-04-23 07:04:19 51°21.27 2°50.342 17.3931 0.0687 0.403452 -0.965744
2010-04-23 07:04:24 51°21.286 2°50.324 17.3983 0.0687 0.403459 -0.965744
2010-04-23 07:04:24 51°21.286 2°50.324 17.3983 0.0687 0.403459 -0.965744
2010-04-23 07:04:41 51°21.341 2°50.263 17.3986 0.0687 0.403487 -0.93092
2010-04-23 07:04:46 51°21.357 2°50.245 17.3976 0.0687 0.403494 -1.000568
2010-04-23 07:04:49 51°21.367 2°50.234 17.3956 0.0687 0.403494 -1.000568
2010-04-23 07:04:56 51°21.39 2°50.209 17.3982 0.068596 0.402876 -1.000568
2010-04-23 07:05:13 51°21.445 2°50.147 17.4109 0.0687 0.403523 -0.965744
2010-04-23 07:05:36 51°21.52 2°50.063 17.4044 0.0687 0.403573 -0.965744
2010-04-23 07:05:41 51°21.536 2°50.046 17.421 0.0687 0.40358 -1.000568
2010-04-23 07:05:46 51°21.552 2°50.027 17.4062 0.0687 0.403587 -0.93092
2010-04-23 07:06:01 51°21.601 2°49.972 17.4235 0.0687 0.403616 -0.93092
2010-04-23 07:06:15 51°21.647 2°49.92 17.4217 0.0687 0.403638 -0.965744
2010-04-23 07:07:29 51°21.89 2°49.652 17.4156 0.0687 0.403716 -0.965744
2010-04-23 07:07:35 51°21.909 2°49.629 17.4363 0.0687 0.403759 -1.000568
2010-04-23 07:07:40 51°21.926 2°49.611 17.4277 0.0687 0.403766 -1.000568
2010-04-23 07:07:45 51°21.943 2°49.593 17.4251 0.0687 0.403781 -0.965744
2010-04-23 07:07:49 51°21.956 2°49.579 17.4274 0.0687 0.403781 -0.965744
2010-04-23 07:07:55 51°21.976 2°49.558 17.3919 0.0687 0.403781 -0.965744
2010-04-23 07:08:00 51°21.992 2°49.539 17.4002 0.0687 0.403795 -0.965744
2010-04-23 07:08:05 51°22.009 2°49.521 17.4046 0.0687 0.403795 -1.000568
2010-04-23 07:08:09 51°22.02 2°49.504 17.4129 0.0687 0.403838 -0.965744
2010-04-23 07:08:15 51°22.039 2°49.481 17.4042 0.0687 0.403838 -0.965744
2010-04-23 07:08:20 51°22.053 2°49.459 17.4179 0.0687 0.403809 -0.965744
2010-04-23 07:08:25 51°22.068 2°49.439 17.4197 0.0687 0.403831 -1.000568
2010-04-23 07:08:29 51°22.079 2°49.422 17.4356 0.0687 0.403831 -0.965744
2010-04-23 07:08:35 51°22.096 2°49.395 17.4173 0.0687 0.403845 -1.000568
2010-04-23 07:08:40 51°22.11 2°49.374 17.4416 0.0687 0.403852 -0.965744
2010-04-23 07:08:45 51°22.124 2°49.352 17.4199 0.0687 0.403852 -0.965744
2010-04-23 07:08:49 51°22.135 2°49.334 17.4348 0.0687 0.40386 -0.965744
2010-04-23 07:08:55 51°22.151 2°49.307 17.4245 0.0687 0.403881 -0.965744
2010-04-23 07:09:00 51°22.166 2°49.286 17.4437 0.0687 0.403874 -0.965744
2010-04-23 07:09:05 51°22.179 2°49.263 17.4411 0.0687 0.403895 -0.93092
2010-04-23 07:09:09 51°22.19 2°49.246 17.439 0.0687 0.403903 -0.965744
2010-04-23 07:09:15 51°22.206 2°49.218 17.4461 0.0687 0.403903 -0.965744
2010-04-23 07:09:20 51°22.22 2°49.196 17.4467 0.0687 0.403917 -0.965744
2010-04-23 07:09:25 51°22.233 2°49.173 17.4396 0.0687 0.403931 -1.000568
2010-04-23 07:09:29 51°22.244 2°49.156 17.4555 0.0687 0.403938 -1.000568
2010-04-23 07:09:35 51°22.26 2°49.128 17.4518 0.0687 0.403938 -0.965744
2010-04-23 07:09:40 51°22.274 2°49.106 17.4526 0.0687 0.403938 -0.93092
2010-04-23 07:09:45 51°22.288 2°49.084 17.4507 0.0687 0.403938 -0.93092
2010-04-23 07:09:49 51°22.299 2°49.067 17.4492 0.0687 0.403967 -0.965744
2010-04-23 07:09:55 51°22.315 2°49.04 17.4593 0.0687 0.40396 -0.965744
2010-04-23 07:10:00 51°22.328 2°49.018 17.4493 0.0687 0.403974 -0.965744
2010-04-23 07:10:05 51°22.342 2°48.995 17.4599 0.0687 0.403989 -1.000568
2010-04-23 07:10:09 51°22.353 2°48.977 17.4532 0.068804 0.404622 -1.000568
2010-04-23 07:10:15 51°22.369 2°48.951 17.4767 0.068804 0.404622 -1.000568
2010-04-23 07:10:20 51°22.382 2°48.928 17.475 0.068804 0.404629 -0.965744
2010-04-23 07:10:25 51°22.396 2°48.906 17.4794 0.0687 0.40401 -0.965744
2010-04-23 07:10:29 51°22.407 2°48.889 17.4699 0.0687 0.404024 -0.965744
2010-04-23 07:10:35 51°22.423 2°48.863 17.4667 0.0687 0.404024 -0.965744
2010-04-23 07:10:40 51°22.437 2°48.841 17.4802 0.0687 0.40406 -1.000568
2010-04-23 07:10:45 51°22.451 2°48.82 17.4746 0.0687 0.40406 -1.000568
2010-04-23 07:10:49 51°22.462 2°48.803 17.4756 0.0687 0.404053 -0.965744
2010-04-23 07:10:55 51°22.478 2°48.776 17.4826 0.0687 0.404053 -0.965744
2010-04-23 07:11:00 51°22.492 2°48.755 17.4745 0.068804 0.404708 -0.965744
2010-04-23 07:11:05 51°22.506 2°48.733 17.4761 0.0687 0.404089 -0.93092
2010-04-23 07:11:09 51°22.517 2°48.716 17.506 0.0687 0.404089 -0.965744
2010-04-23 07:11:15 51°22.533 2°48.69 17.4784 0.0687 0.404089 -0.965744
2010-04-23 07:11:20 51°22.547 2°48.669 17.49 0.0687 0.404089 -1.000568
2010-04-23 07:11:25 51°22.56 2°48.647 17.4817 0.0687 0.404103 -0.93092
2010-04-23 07:11:29 51°22.572 2°48.63 17.4884 0.0687 0.404111 -0.965744
2010-04-23 07:11:35 51°22.587 2°48.602 17.4917 0.068804 0.40478 -0.965744
2010-04-23 07:11:40 51°22.6 2°48.581 17.4961 0.068804 0.404766 -0.965744
2010-04-23 07:11:45 51°22.612 2°48.557 17.5069 0.068804 0.404766 -0.965744
2010-04-23 07:11:49 51°22.622 2°48.539 17.4981 0.0687 0.404168 -1.000568
2010-04-23 07:11:55 51°22.636 2°48.51 17.5056 0.068804 0.404794 -0.965744
2010-04-23 07:12:00 51°22.648 2°48.486 17.5071 0.0687 0.404182 -1.000568
2010-04-23 07:12:05 51°22.659 2°48.461 17.5023 0.0687 0.40419 -1.000568
2010-04-23 07:12:09 51°22.668 2°48.442 17.5053 0.068804 0.404823 -0.965744
2010-04-23 07:12:14 51°22.679 2°48.417 17.5026 0.068804 0.404823 -0.965744
2010-04-23 07:12:20 51°22.692 2°48.387 17.5148 0.068804 0.40483 -0.965744
2010-04-23 07:12:25 51°22.703 2°48.363 17.533 0.068804 0.404823 -0.965744
2010-04-23 07:12:29 51°22.711 2°48.343 17.5207 0.068804 0.404845 -0.965744
2010-04-23 07:12:35 51°22.723 2°48.313 17.5172 0.068804 0.404845 -0.965744
2010-04-23 07:12:40 51°22.734 2°48.288 17.53 0.0687 0.404225 -0.965744
2010-04-23 07:12:45 51°22.744 2°48.263 17.5299 0.0687 0.404225 -0.965744
2010-04-23 07:12:49 51°22.752 2°48.243 17.525 0.068804 0.404866 -0.965744
2010-04-23 07:12:55 51°22.765 2°48.213 17.5399 0.068804 0.404874 -0.965744
2010-04-23 07:13:00 51°22.775 2°48.188 17.5252 0.0687 0.404254 -1.000568
2010-04-23 07:13:05 51°22.786 2°48.163 17.5349 0.0687 0.404254 -0.965744
2010-04-23 07:13:09 51°22.795 2°48.143 17.5544 0.068804 0.404888 -0.965744
2010-04-23 07:13:15 51°22.807 2°48.113 17.5309 0.068804 0.404888 -0.965744
2010-04-23 07:13:20 51°22.818 2°48.088 17.5424 0.068804 0.404895 -0.965744
2010-04-23 07:13:25 51°22.829 2°48.063 17.5443 0.068804 0.404924 -1.000568
2010-04-23 07:13:30 51°22.84 2°48.038 17.5359 0.0687 0.40429 -0.965744
2010-04-23 07:13:35 51°22.851 2°48.014 17.5499 0.068804 0.404924 -0.965744
2010-04-23 07:13:40 51°22.861 2°47.989 17.5426 0.068804 0.404946 -0.965744
2010-04-23 07:13:45 51°22.872 2°47.964 17.5538 0.068804 0.404946 -0.965744
2010-04-23 07:13:50 51°22.882 2°47.939 17.5387 0.0687 0.404319 -0.965744
2010-04-23 07:13:55 51°22.893 2°47.914 17.5575 0.068804 0.404953 -0.93092
2010-04-23 07:14:00 51°22.904 2°47.889 17.5404 0.068804 0.404967 -0.965744
2010-04-23 07:14:05 51°22.915 2°47.865 17.5535 0.068804 0.40496 -1.000568
2010-04-23 07:14:09 51°22.923 2°47.844 17.5444 0.0687 0.40434 -1.000568
2010-04-23 07:14:15 51°22.937 2°47.815 17.5509 0.068804 0.404974 -0.965744
2010-04-23 07:14:20 51°22.947 2°47.79 17.5599 0.068804 0.404974 -0.965744
2010-04-23 07:14:25 51°22.958 2°47.765 17.5562 0.0687 0.404369 -1.000568
2010-04-23 07:14:29 51°22.966 2°47.745 17.5536 0.068804 0.40501 -0.965744
2010-04-23 07:14:35 51°22.979 2°47.715 17.5568 0.068804 0.405003 -0.965744
2010-04-23 07:14:40 51°22.99 2°47.691 17.5711 0.068804 0.40501 -0.965744
2010-04-23 07:14:45 51°23.001 2°47.666 17.562 0.068804 0.40501 -0.965744
2010-04-23 07:14:49 51°23.009 2°47.646 17.5598 0.068804 0.405032 -0.965744
2010-04-23 07:14:55 51°23.022 2°47.616 17.5571 0.068804 0.405032 -0.93092
2010-04-23 07:15:00 51°23.033 2°47.592 17.563 0.068804 0.405046 -0.965744
2010-04-23 07:15:05 51°23.044 2°47.567 17.5707 0.068804 0.405046 -1.000568
2010-04-23 07:15:09 51°23.052 2°47.547 17.5763 0.068804 0.405061 -0.965744
2010-04-23 07:15:15 51°23.065 2°47.517 17.5662 0.068804 0.405061 -0.965744
2010-04-23 07:15:20 51°23.076 2°47.492 17.5827 0.068804 0.405061 -0.965744
2010-04-23 07:15:25 51°23.087 2°47.468 17.5764 0.068804 0.405068 -1.000568
2010-04-23 07:15:29 51°23.096 2°47.448 17.593 0.068804 0.405082 -0.965744
2010-04-23 07:15:35 51°23.109 2°47.418 17.5727 0.068804 0.40509 -0.965744
2010-04-23 07:15:40 51°23.12 2°47.393 17.5816 0.068804 0.405104 -0.965744
2010-04-23 07:15:45 51°23.131 2°47.369 17.5859 0.068804 0.405104 -0.965744
2010-04-23 07:15:49 51°23.14 2°47.349 17.5771 0.068804 0.405111 -0.93092
2010-04-23 07:15:55 51°23.153 2°47.319 17.5836 0.068804 0.405111 -0.965744
2010-04-23 07:16:00 51°23.164 2°47.294 17.5769 0.068804 0.405133 -0.965744
2010-04-23 07:16:05 51°23.175 2°47.27 17.5871 0.068804 0.405133 -0.965744
2010-04-23 07:16:09 51°23.184 2°47.25 17.5866 0.068804 0.405147 -1.000568
2010-04-23 07:16:15 51°23.197 2°47.22 17.6006 0.068804 0.405147 -1.000568
2010-04-23 07:16:20 51°23.208 2°47.195 17.5928 0.068804 0.40514 -1.000568
2010-04-23 07:16:25 51°23.219 2°47.169 17.5898 0.068804 0.405154 -1.000568
2010-04-23 07:16:29 51°23.227 2°47.15 17.5925 0.068804 0.405162 -1.000568
2010-04-23 07:16:35 51°23.24 2°47.12 17.5976 0.0687 0.404527 -1.000568
2010-04-23 07:16:40 51°23.251 2°47.094 17.6055 0.068804 0.405183 -0.93092
2010-04-23 07:16:45 51°23.262 2°47.069 17.5954 0.068804 0.405183 -0.93092
2010-04-23 07:16:49 51°23.27 2°47.049 17.6087 0.068804 0.405176 -0.965744
2010-04-23 07:16:55 51°23.283 2°47.019 17.6016 0.068804 0.40519 -0.965744
2010-04-23 07:17:00 51°23.294 2°46.994 17.6023 0.068804 0.405198 -0.965744
2010-04-23 07:17:05 51°23.304 2°46.968 17.6007 0.068804 0.405205 -1.000568
2010-04-23 07:17:09 51°23.313 2°46.948 17.6142 0.068804 0.405219 -0.93092
2010-04-23 07:17:15 51°23.325 2°46.917 17.604 0.068804 0.405219 -0.93092
2010-04-23 07:17:20 51°23.336 2°46.891 17.6183 0.068804 0.405219 -0.965744
2010-04-23 07:17:25 51°23.346 2°46.865 17.6123 0.068804 0.405234 -0.965744
2010-04-23 07:17:29 51°23.355 2°46.844 17.6264 0.068804 0.405234 -0.93092
2010-04-23 07:17:35 51°23.368 2°46.813 17.6158 0.068804 0.405248 -0.965744
2010-04-23 07:17:40 51°23.379 2°46.787 17.6203 0.068804 0.405255 -0.965744
2010-04-23 07:17:45 51°23.389 2°46.761 17.618 0.068804 0.405255 -0.965744
2010-04-23 07:17:49 51°23.398 2°46.741 17.619 0.068804 0.405255 -0.965744
2010-04-23 07:17:55 51°23.411 2°46.71 17.6169 0.068804 0.405262 -0.93092
2010-04-23 07:18:00 51°23.421 2°46.684 17.6284 0.068804 0.405277 -0.93092
2010-04-23 07:18:05 51°23.432 2°46.659 17.6261 0.068804 0.405277 -1.000568
2010-04-23 07:18:09 51°23.441 2°46.638 17.6339 0.068804 0.405299 -1.000568
2010-04-23 07:18:15 51°23.453 2°46.606 17.624 0.068804 0.405299 -1.000568
2010-04-23 07:18:20 51°23.463 2°46.58 17.6342 0.068804 0.405291 -0.965744
2010-04-23 07:18:25 51°23.473 2°46.553 17.6278 0.068804 0.405313 -1.000568
2010-04-23 07:18:29 51°23.481 2°46.532 17.6898 0.0687 0.404678 -0.965744
2010-04-23 07:18:35 51°23.493 2°46.5 17.738 0.068804 0.405327 -0.965744
2010-04-23 07:18:40 51°23.503 2°46.474 17.7396 0.068804 0.40532 -1.000568
2010-04-23 07:18:45 51°23.512 2°46.447 17.7315 0.068804 0.40532 -1.000568
2010-04-23 07:18:49 51°23.52 2°46.425 17.7456 0.068804 0.405327 -1.000568
2010-04-23 07:18:55 51°23.531 2°46.393 17.7586 0.068804 0.405349 -0.965744
2010-04-23 07:19:00 51°23.541 2°46.366 17.7629 0.068804 0.405342 -1.000568
2010-04-23 07:19:05 51°23.549 2°46.339 17.7938 0.068804 0.405356 -1.000568
2010-04-23 07:19:09 51°23.557 2°46.317 17.7774 0.068804 0.405363 -0.965744
2010-04-23 07:19:14 51°23.566 2°46.29 17.7752 0.068804 0.405363 -0.965744
2010-04-23 07:19:20 51°23.577 2°46.257 17.7738 0.068804 0.405371 -1.000568
2010-04-23 07:19:25 51°23.586 2°46.23 17.7718 0.068804 0.405378 -1.000568
2010-04-23 07:19:29 51°23.592 2°46.208 17.765 0.068804 0.405392 -0.93092
2010-04-23 07:19:35 51°23.603 2°46.175 17.7744 0.0687 0.404758 -1.000568
2010-04-23 07:19:40 51°23.612 2°46.147 17.7655 0.068804 0.405392 -0.965744
2010-04-23 07:19:45 51°23.622 2°46.12 17.7646 0.068804 0.405392 -0.965744
2010-04-23 07:19:49 51°23.629 2°46.098 17.7619 0.068804 0.4054 -0.965744
2010-04-23 07:19:55 51°23.64 2°46.065 17.7645 0.068804 0.405414 -0.93092
2010-04-23 07:20:00 51°23.648 2°46.038 17.7627 0.068804 0.405428 -0.965744
2010-04-23 07:20:05 51°23.658 2°46.011 17.7647 0.068804 0.405428 -0.965744
2010-04-23 07:20:09 51°23.665 2°45.989 17.7648 0.068804 0.405443 -0.93092
2010-04-23 07:20:15 51°23.675 2°45.956 17.7726 0.068804 0.405443 -0.93092
2010-04-23 07:20:20 51°23.685 2°45.929 17.7696 0.068804 0.40545 -0.93092
2010-04-23 07:20:25 51°23.694 2°45.902 17.7679 0.068804 0.40545 -0.965744
2010-04-23 07:20:30 51°23.704 2°45.875 17.7755 0.0687 0.40483 -0.965744
2010-04-23 07:20:35 51°23.713 2°45.848 17.7715 0.0687 0.404837 -0.965744
2010-04-23 07:20:40 51°23.722 2°45.82 17.7744 0.068804 0.405486 -0.965744
2010-04-23 07:20:45 51°23.73 2°45.793 17.737 0.068804 0.405486 -0.965744
2010-04-23 07:20:49 51°23.738 2°45.771 17.7159 0.0687 0.404851 -0.965744
2010-04-23 07:20:55 51°23.749 2°45.738 17.6823 0.0687 0.404866 -0.93092
2010-04-23 07:21:00 51°23.758 2°45.71 17.6364 0.0687 0.404859 -0.93092
2010-04-23 07:21:05 51°23.767 2°45.683 17.6389 0.068804 0.405522 -0.965744
2010-04-23 07:21:09 51°23.774 2°45.661 17.6478 0.068804 0.405515 -0.896096
2010-04-23 07:21:15 51°23.785 2°45.628 17.6237 0.068804 0.405515 -0.896096
2010-04-23 07:21:20 51°23.794 2°45.601 17.6503 0.0687 0.404902 -0.93092
2010-04-23 07:21:25 51°23.803 2°45.573 17.6371 0.068804 0.405537 -0.93092
2010-04-23 07:21:29 51°23.81 2°45.552 17.6606 0.068804 0.405537 -0.93092
2010-04-23 07:21:35 51°23.821 2°45.519 17.6729 0.068804 0.405558 -0.93092
2010-04-23 07:21:40 51°23.83 2°45.493 17.6773 0.0687 0.404931 -0.93092
2010-04-23 07:21:45 51°23.839 2°45.465 17.6614 0.0687 0.404931 -0.93092
2010-04-23 07:21:49 51°23.846 2°45.444 17.6583 0.068804 0.405573 -0.965744
2010-04-23 07:21:55 51°23.857 2°45.411 17.6717 0.068804 0.405558 -0.965744
2010-04-23 07:22:00 51°23.866 2°45.384 17.6643 0.068804 0.405587 -0.93092
2010-04-23 07:22:05 51°23.876 2°45.357 17.6861 0.068804 0.405587 -0.965744
2010-04-23 07:22:10 51°23.885 2°45.33 17.6768 0.068804 0.405602 -0.965744
2010-04-23 07:22:15 51°23.894 2°45.303 17.681 0.068804 0.405602 -0.965744
2010-04-23 07:22:20 51°23.902 2°45.276 17.6786 0.068804 0.405602 -0.93092
2010-04-23 07:22:25 51°23.912 2°45.249 17.6961 0.068804 0.405602 -0.965744
2010-04-23 07:22:30 51°23.921 2°45.221 17.6783 0.068804 0.405616 -0.93092
2010-04-23 07:22:35 51°23.93 2°45.194 17.6917 0.068804 0.405623 -0.93092
2010-04-23 07:22:40 51°23.939 2°45.168 17.6917 0.068804 0.405638 -0.965744
2010-04-23 07:22:45 51°23.949 2°45.141 17.6945 0.068804 0.405638 -0.965744
2010-04-23 07:22:50 51°23.958 2°45.114 17.6873 0.068804 0.405631 -0.965744
2010-04-23 07:22:55 51°23.967 2°45.087 17.6905 0.068804 0.405652 -0.965744
2010-04-23 07:23:00 51°23.976 2°45.06 17.6931 0.068804 0.405652 -0.965744
2010-04-23 07:23:05 51°23.985 2°45.034 17.6873 0.068804 0.405667 -0.965744
2010-04-23 07:23:09 51°23.992 2°45.012 17.6877 0.0687 0.405039 -0.93092
2010-04-23 07:23:15 51°24.004 2°44.98 17.7072 0.0687 0.405039 -0.93092
2010-04-23 07:23:20 51°24.012 2°44.953 17.6944 0.068804 0.405674 -0.93092
2010-04-23 07:23:25 51°24.022 2°44.926 17.6994 0.068804 0.405696 -0.965744
2010-04-23 07:23:29 51°24.029 2°44.905 17.7042 0.0687 0.40506 -0.965744
2010-04-23 07:23:35 51°24.04 2°44.873 17.7004 0.068804 0.405703 -0.965744
2010-04-23 07:23:40 51°24.049 2°44.846 17.702 0.068804 0.40571 -0.965744
2010-04-23 07:23:45 51°24.058 2°44.819 17.6986 0.068804 0.40571 -0.965744
2010-04-23 07:23:49 51°24.065 2°44.797 17.7036 0.068804 0.405725 -0.965744
2010-04-23 07:23:55 51°24.076 2°44.765 17.7015 0.068804 0.405725 -0.965744
2010-04-23 07:24:00 51°24.085 2°44.738 17.7089 0.068804 0.405739 -0.965744
2010-04-23 07:24:05 51°24.094 2°44.711 17.7085 0.0687 0.405118 -0.965744
2010-04-23 07:24:09 51°24.101 2°44.689 17.7077 0.0687 0.405111 -0.93092
2010-04-23 07:24:15 51°24.112 2°44.657 17.7093 0.0687 0.405111 -0.93092
2010-04-23 07:24:20 51°24.121 2°44.63 17.7112 0.068804 0.405761 -0.965744
2010-04-23 07:24:25 51°24.13 2°44.603 17.712 0.068804 0.405775 -0.965744
2010-04-23 07:24:29 51°24.138 2°44.582 17.7206 0.0687 0.405147 -0.965744
2010-04-23 07:24:35 51°24.148 2°44.55 17.7252 0.068804 0.40579 -0.965744
2010-04-23 07:24:40 51°24.157 2°44.523 17.7265 0.068804 0.405804 -0.965744
2010-04-23 07:24:45 51°24.166 2°44.497 17.7392 0.068804 0.405804 -0.965744
2010-04-23 07:24:49 51°24.173 2°44.477 17.7457 0.0687 0.405169 -0.965744
2010-04-23 07:24:55 51°24.183 2°44.449 17.7345 0.0687 0.405183 -0.965744
2010-04-23 07:25:00 51°24.19 2°44.427 17.7317 0.068804 0.405826 -0.965744
2010-04-23 07:25:05 51°24.197 2°44.407 17.7278 0.0687 0.405205 -0.965744
2010-04-23 07:25:09 51°24.203 2°44.391 17.7186 0.068804 0.405862 -0.965744
2010-04-23 07:25:15 51°24.211 2°44.369 17.7179 0.068804 0.405862 -0.965744
2010-04-23 07:25:20 51°24.217 2°44.351 17.7223 0.0687 0.405227 -0.93092
2010-04-23 07:25:25 51°24.224 2°44.334 17.7236 0.0687 0.405227 -1.000568
2010-04-23 07:25:29 51°24.229 2°44.32 17.7293 0.0687 0.405234 -0.965744
2010-04-23 07:25:35 51°24.237 2°44.299 17.7293 0.068804 0.405876 -0.93092
2010-04-23 07:25:40 51°24.243 2°44.283 17.7241 0.068804 0.405884 -0.93092
2010-04-23 07:25:45 51°24.25 2°44.267 17.725 0.068804 0.405884 -0.93092
2010-04-23 07:25:49 51°24.255 2°44.255 17.7251 0.068804 0.405884 -0.965744
2010-04-23 07:25:55 51°24.262 2°44.238 17.7245 0.068804 0.405905 -1.000568
2010-04-23 07:26:00 51°24.267 2°44.223 17.7258 0.068804 0.40592 -0.93092
2010-04-23 07:26:05 51°24.273 2°44.209 17.7314 0.068804 0.40592 -0.93092
2010-04-23 07:26:09 51°24.277 2°44.197 17.728 0.068804 0.405934 -0.93092
2010-04-23 07:26:15 51°24.284 2°44.18 17.7301 0.068804 0.405934 -0.93092
2010-04-23 07:26:20 51°24.29 2°44.166 17.7335 0.068804 0.405942 -0.93092
2010-04-23 07:26:25 51°24.296 2°44.151 17.7318 0.068804 0.405942 -0.93092
2010-04-23 07:26:29 51°24.301 2°44.14 17.7354 0.068804 0.405949 -0.965744
2010-04-23 07:26:35 51°24.308 2°44.123 17.7379 0.0687 0.405328 -0.93092
2010-04-23 07:26:40 51°24.314 2°44.109 17.7448 0.068804 0.405963 -0.896096
2010-04-23 07:26:45 51°24.32 2°44.094 17.7439 0.068804 0.405963 -0.896096
2010-04-23 07:26:49 51°24.325 2°44.083 17.7427 0.068804 0.405963 -0.93092
2010-04-23 07:26:55 51°24.332 2°44.066 17.748 0.068804 0.405985 -0.93092
2010-04-23 07:27:00 51°24.339 2°44.052 17.7413 0.068804 0.405985 -0.93092
2010-04-23 07:27:05 51°24.345 2°44.037 17.7557 0.068804 0.405999 -0.93092
2010-04-23 07:27:09 51°24.35 2°44.026 17.7393 0.068804 0.406007 -0.965744
2010-04-23 07:27:15 51°24.357 2°44.008 17.7476 0.068804 0.406007 -0.965744
2010-04-23 07:27:20 51°24.362 2°43.993 17.7496 0.068804 0.406021 -0.965744
2010-04-23 07:27:25 51°24.368 2°43.979 17.7538 0.068804 0.406014 -0.965744
2010-04-23 07:27:30 51°24.373 2°43.965 17.7543 0.0687 0.405407 -0.965744
2010-04-23 07:27:35 51°24.379 2°43.951 17.7558 0.068804 0.406043 -0.93092
2010-04-23 07:27:40 51°24.384 2°43.939 17.7596 0.0687 0.405414 -0.965744
2010-04-23 07:27:45 51°24.39 2°43.927 17.7582 0.0687 0.405414 -0.965744
2010-04-23 07:27:49 51°24.394 2°43.918 17.7629 0.068804 0.406057 -0.93092
2010-04-23 07:27:55 51°24.401 2°43.905 17.7634 0.068804 0.406065 -0.93092
2010-04-23 07:28:00 51°24.406 2°43.895 17.7658 0.068804 0.406065 -0.965744
2010-04-23 07:28:05 51°24.411 2°43.885 17.7672 0.0687 0.405443 -0.965744
2010-04-23 07:28:09 51°24.415 2°43.877 17.7627 0.068804 0.406086 -0.965744
2010-04-23 07:28:15 51°24.421 2°43.867 17.7639 0.068804 0.406086 -0.965744
2010-04-23 07:28:20 51°24.426 2°43.858 17.7649 0.068804 0.406101 -0.93092
2010-04-23 07:28:25 51°24.431 2°43.85 17.7685 0.068804 0.406108 -0.965744
2010-04-23 07:28:29 51°24.435 2°43.842 17.7705 0.0687 0.40548 -0.965744
2010-04-23 07:28:35 51°24.441 2°43.832 17.769 0.068804 0.406123 -0.965744
2010-04-23 07:28:40 51°24.446 2°43.823 17.7704 0.068804 0.406123 -0.965744
2010-04-23 07:28:45 51°24.451 2°43.814 17.7708 0.068804 0.406123 -0.965744
2010-04-23 07:28:49 51°24.455 2°43.806 17.7703 0.068804 0.406137 -0.93092
2010-04-23 07:28:55 51°24.461 2°43.795 17.7719 0.068804 0.406137 -0.965744
2010-04-23 07:29:00 51°24.466 2°43.785 17.7762 0.0687 0.405501 -0.965744
2010-04-23 07:29:05 51°24.471 2°43.776 17.7791 0.068804 0.406159 -0.965744
2010-04-23 07:29:09 51°24.475 2°43.768 17.7779 0.0687 0.405523 -0.93092
2010-04-23 07:29:15 51°24.482 2°43.757 17.7827 0.0687 0.405523 -0.93092
2010-04-23 07:29:20 51°24.488 2°43.748 17.7863 0.068804 0.406166 -0.93092
2010-04-23 07:29:25 51°24.493 2°43.739 17.7879 0.0687 0.405537 -0.965744
2010-04-23 07:29:29 51°24.498 2°43.732 17.7901 0.0687 0.405545 -0.965744
2010-04-23 07:29:35 51°24.504 2°43.723 17.7898 0.0687 0.405559 -0.965744
2010-04-23 07:29:40 51°24.51 2°43.717 17.7898 0.068804 0.406202 -0.965744
2010-04-23 07:29:45 51°24.516 2°43.71 17.7901 0.068804 0.406202 -0.965744
2010-04-23 07:29:49 51°24.521 2°43.705 17.7917 0.068804 0.406202 -0.93092
2010-04-23 07:29:55 51°24.528 2°43.698 17.7951 0.068804 0.406217 -0.965744
2010-04-23 07:30:00 51°24.534 2°43.693 17.7958 0.0687 0.405588 -0.965744
2010-04-23 07:30:05 51°24.54 2°43.689 17.7997 0.068804 0.406224 -0.93092
2010-04-23 07:30:09 51°24.545 2°43.685 17.804 0.0687 0.405603 -0.965744
2010-04-23 07:30:15 51°24.551 2°43.68 17.8088 0.0687 0.405603 -0.965744
2010-04-23 07:30:20 51°24.557 2°43.677 17.8499 0.0687 0.40561 -0.93092
2010-04-23 07:30:25 51°24.562 2°43.675 17.8478 0.0687 0.405617 -0.93092
2010-04-23 07:30:29 51°24.565 2°43.674 17.839 0.068804 0.40626 -0.965744
2010-04-23 07:30:35 51°24.57 2°43.673 17.8423 0.068804 0.406268 -0.965744
2010-04-23 07:30:40 51°24.574 2°43.673 17.841 0.068804 0.40626 -0.965744
2010-04-23 07:30:45 51°24.578 2°43.673 17.8383 0.068804 0.40626 -0.965744
2010-04-23 07:30:49 51°24.581 2°43.674 17.8391 0.0687 0.405639 -0.93092
2010-04-23 07:30:55 51°24.585 2°43.675 17.8342 0.0687 0.405653 -0.93092
2010-04-23 07:31:00 51°24.589 2°43.677 17.8338 0.068804 0.406297 -0.965744
2010-04-23 07:31:05 51°24.592 2°43.678 17.8338 0.068804 0.406304 -0.965744
2010-04-23 07:31:09 51°24.595 2°43.679 17.8342 0.068804 0.406311 -0.965744
2010-04-23 07:31:15 51°24.599 2°43.681 17.8352 0.068804 0.406311 -0.965744
2010-04-23 07:31:20 51°24.603 2°43.683 17.8359 0.068804 0.406333 -0.965744
2010-04-23 07:31:25 51°24.606 2°43.684 17.8364 0.068804 0.406333 -0.965744
2010-04-23 07:31:29 51°24.609 2°43.686 17.8392 0.068804 0.406333 -0.93092
2010-04-23 07:31:35 51°24.612 2°43.688 17.8383 0.068804 0.40634 -0.93092
2010-04-23 07:31:40 51°24.615 2°43.689 17.8418 0.068804 0.406362 -0.965744
2010-04-23 07:31:45 51°24.618 2°43.691 17.8426 0.068804 0.406362 -0.965744
2010-04-23 07:31:49 51°24.62 2°43.693 17.843 0.0687 0.405726 -0.93092
2010-04-23 07:31:55 51°24.623 2°43.695 17.8462 0.0687 0.40574 -0.965744
2010-04-23 07:32:00 51°24.626 2°43.698 17.8466 0.0687 0.40574 -0.93092
2010-04-23 07:32:05 51°24.629 2°43.699 17.8479 0.068804 0.406376 -0.965744
2010-04-23 07:32:09 51°24.631 2°43.701 17.85 0.068804 0.406391 -0.965744
2010-04-23 07:32:15 51°24.635 2°43.703 17.851 0.068804 0.406391 -0.965744
2010-04-23 07:32:20 51°24.638 2°43.705 17.8517 0.0687 0.405762 -0.965744
2010-04-23 07:32:25 51°24.64 2°43.706 17.8577 0.068804 0.406398 -0.93092
2010-04-23 07:32:29 51°24.642 2°43.708 17.8561 0.068804 0.406405 -0.965744
2010-04-23 07:32:35 51°24.645 2°43.71 17.8581 0.0687 0.405776 -0.93092
2010-04-23 07:32:40 51°24.648 2°43.712 17.8577 0.0687 0.405784 -0.965744
2010-04-23 07:32:45 51°24.65 2°43.713 17.8588 0.0687 0.405784 -0.965744
2010-04-23 07:32:49 51°24.652 2°43.715 17.8591 0.0687 0.405791 -0.93092
2010-04-23 07:32:55 51°24.654 2°43.717 17.8616 0.0687 0.405798 -0.93092
2010-04-23 07:33:00 51°24.657 2°43.718 17.863 0.0687 0.405791 -0.965744
2010-04-23 07:33:05 51°24.659 2°43.72 17.8629 0.0687 0.405791 -0.93092
2010-04-23 07:33:09 51°24.661 2°43.721 17.8648 0.0687 0.405798 -0.93092
2010-04-23 07:33:15 51°24.663 2°43.722 17.865 0.0687 0.405798 -0.93092
2010-04-23 07:33:20 51°24.665 2°43.724 17.8674 0.0687 0.405798 -0.93092
2010-04-23 07:33:25 51°24.667 2°43.725 17.8687 0.068804 0.406442 -0.965744
2010-04-23 07:33:29 51°24.669 2°43.726 17.8712 0.0687 0.405805 -0.965744
2010-04-23 07:33:35 51°24.672 2°43.728 17.8726 0.0687 0.40582 -0.93092
2010-04-23 07:33:40 51°24.674 2°43.73 17.8745 0.0687 0.40582 -0.93092
2010-04-23 07:33:45 51°24.676 2°43.731 17.8751 0.0687 0.40582 -0.93092
2010-04-23 07:33:49 51°24.678 2°43.732 17.8754 0.0687 0.40582 -0.93092
2010-04-23 07:33:55 51°24.68 2°43.734 17.8766 0.0687 0.405827 -0.93092
2010-04-23 07:34:00 51°24.682 2°43.736 17.8789 0.0687 0.405834 -0.965744
2010-04-23 07:34:05 51°24.684 2°43.737 17.8806 0.0687 0.40582 -0.965744
2010-04-23 07:34:09 51°24.686 2°43.738 17.8814 0.068804 0.406463 -0.965744
2010-04-23 07:34:15 51°24.688 2°43.74 17.8832 0.068804 0.406463 -0.965744
2010-04-23 07:34:20 51°24.69 2°43.742 17.8844 0.0687 0.405842 -0.965744
2010-04-23 07:34:25 51°24.692 2°43.743 17.8869 0.0687 0.405842 -0.93092
2010-04-23 07:34:29 51°24.694 2°43.744 17.8866 0.068804 0.406478 -0.965744
2010-04-23 07:34:35 51°24.696 2°43.746 17.8872 0.0687 0.405849 -0.93092
2010-04-23 07:34:40 51°24.698 2°43.747 17.8892 0.0687 0.405863 -0.93092
2010-04-23 07:34:45 51°24.7 2°43.749 17.8908 0.0687 0.405863 -0.93092
2010-04-23 07:34:49 51°24.702 2°43.75 17.8927 0.0687 0.405871 -0.93092
2010-04-23 07:34:55 51°24.704 2°43.751 17.8935 0.068804 0.4065 -0.965744
2010-04-23 07:35:00 51°24.706 2°43.753 17.8946 0.0687 0.405871 -0.965744
2010-04-23 07:35:05 51°24.708 2°43.754 17.8965 0.0687 0.405878 -0.93092
2010-04-23 07:35:09 51°24.709 2°43.756 17.8981 0.0687 0.405885 -0.93092
2010-04-23 07:35:15 51°24.712 2°43.758 17.8998 0.0687 0.405885 -0.93092
2010-04-23 07:35:20 51°24.714 2°43.759 17.9007 0.0687 0.405892 -0.965744
2010-04-23 07:35:25 51°24.715 2°43.761 17.9024 0.0687 0.405892 -0.965744
2010-04-23 07:35:29 51°24.717 2°43.762 17.904 0.0687 0.405907 -0.93092
2010-04-23 07:35:35 51°24.719 2°43.764 17.906 0.0687 0.4059 -0.93092
2010-04-23 07:35:40 51°24.721 2°43.765 17.9071 0.0687 0.405907 -0.93092
2010-04-23 07:35:45 51°24.723 2°43.767 17.9085 0.0687 0.405907 -0.93092
2010-04-23 07:35:49 51°24.724 2°43.769 17.9109 0.0687 0.405914 -0.93092
2010-04-23 07:35:55 51°24.725 2°43.771 17.9121 0.0687 0.405921 -0.965744
2010-04-23 07:36:00 51°24.726 2°43.773 17.9147 0.0687 0.405929 -0.965744
2010-04-23 07:36:05 51°24.727 2°43.776 17.9162 0.0687 0.405929 -1.000568
2010-04-23 07:36:09 51°24.727 2°43.778 17.9171 0.0687 0.405936 -1.000568
2010-04-23 07:36:15 51°24.728 2°43.782 17.9196 0.0687 0.405936 -1.000568
2010-04-23 07:36:20 51°24.728 2°43.785 17.92 0.0687 0.405943 -0.965744
2010-04-23 07:36:25 51°24.727 2°43.789 17.9219 0.0687 0.40595 -0.965744
2010-04-23 07:36:30 51°24.726 2°43.794 17.9224 0.0687 0.40595 -0.93092
2010-04-23 07:36:37 51°24.726 2°43.802 17.9235 0.0687 0.40595 -0.965744
2010-04-23 07:36:42 51°24.725 2°43.807 17.924 0.0687 0.405958 -0.965744
2010-04-23 07:36:48 51°24.723 2°43.814 17.9264 0.0687 0.405958 -0.965744
2010-04-23 07:36:53 51°24.723 2°43.82 17.9283 0.0687 0.405958 -0.965744
2010-04-23 07:36:58 51°24.723 2°43.826 17.9296 0.0687 0.405965 -0.965744
2010-04-23 07:37:04 51°24.722 2°43.833 17.9309 0.0687 0.405972 -0.965744
2010-04-23 07:37:09 51°24.722 2°43.838 17.932 0.0687 0.405972 -0.965744
2010-04-23 07:37:13 51°24.722 2°43.841 17.9331 0.0687 0.405972 -0.93092
2010-04-23 07:37:18 51°24.723 2°43.845 17.9343 0.0687 0.405972 -0.93092
2010-04-23 07:37:23 51°24.725 2°43.847 17.936 0.0687 0.405972 -0.965744
2010-04-23 07:37:28 51°24.726 2°43.848 17.9365 0.0687 0.405972 -0.93092
2010-04-23 07:37:33 51°24.728 2°43.849 17.9374 0.0687 0.405979 -0.93092
2010-04-23 07:37:38 51°24.729 2°43.849 17.9383 0.0687 0.405987 -0.93092
2010-04-23 07:37:43 51°24.73 2°43.848 17.9405 0.0687 0.405987 -0.965744
2010-04-23 07:37:48 51°24.732 2°43.848 17.9414 0.0687 0.405987 -0.965744
2010-04-23 07:37:53 51°24.732 2°43.847 17.9431 0.0687 0.405994 -0.965744
2010-04-23 07:37:59 51°24.734 2°43.845 17.9451 0.0687 0.405994 -0.965744
2010-04-23 07:38:03 51°24.734 2°43.844 17.9456 0.068804 0.406645 -0.93092
2010-04-23 07:38:08 51°24.735 2°43.842 17.9468 0.0687 0.406016 -0.965744
2010-04-23 07:38:13 51°24.735 2°43.84 17.9484 0.0687 0.406008 -0.93092
2010-04-23 07:38:18 51°24.735 2°43.838 17.9501 0.0687 0.406008 -0.93092
2010-04-23 07:38:23 51°24.735 2°43.835 17.95 0.0687 0.406001 -0.93092
2010-04-23 07:38:28 51°24.735 2°43.832 17.9529 0.0687 0.406008 -0.93092
2010-04-23 07:38:33 51°24.734 2°43.829 17.9528 0.0687 0.406008 -0.965744
2010-04-23 07:38:38 51°24.733 2°43.825 17.9534 0.0687 0.406016 -0.965744
2010-04-23 07:38:43 51°24.732 2°43.822 17.9565 0.0687 0.406016 -0.93092
2010-04-23 07:38:48 51°24.731 2°43.818 17.9589 0.0687 0.406016 -0.93092
2010-04-23 07:38:53 51°24.729 2°43.814 17.9612 0.0687 0.406001 -0.965744
2010-04-23 07:38:57 51°24.727 2°43.811 17.9611 0.0687 0.406016 -0.965744
2010-04-23 07:39:02 51°24.725 2°43.808 17.9609 0.0687 0.406023 -0.93092
2010-04-23 07:39:08 51°24.722 2°43.804 17.9624 0.0687 0.406037 -0.965744
2010-04-23 07:39:12 51°24.719 2°43.801 17.9652 0.0687 0.406045 -0.93092
2010-04-23 07:39:17 51°24.716 2°43.797 17.9655 0.0687 0.406045 -0.93092
2010-04-23 07:39:22 51°24.713 2°43.793 17.9681 0.0687 0.406037 -0.965744
2010-04-23 07:39:27 51°24.71 2°43.789 17.9673 0.0687 0.406059 -0.965744
2010-04-23 07:39:32 51°24.707 2°43.785 17.9703 0.0687 0.406059 -0.93092
2010-04-23 07:39:37 51°24.704 2°43.781 17.9703 0.0687 0.406066 -0.965744
2010-04-23 07:39:42 51°24.701 2°43.778 17.9727 0.0687 0.406081 -0.965744
2010-04-23 07:39:47 51°24.699 2°43.774 17.9743 0.0687 0.406081 -0.965744
2010-04-23 07:39:52 51°24.697 2°43.77 17.9744 0.0687 0.406088 -0.93092
2010-04-23 07:39:57 51°24.695 2°43.766 17.9778 0.0687 0.406095 -0.965744
2010-04-23 07:40:01 51°24.694 2°43.763 17.9775 0.0687 0.40611 -0.93092
2010-04-23 07:40:07 51°24.693 2°43.758 17.9794 0.0687 0.406117 -0.93092
2010-04-23 07:40:12 51°24.692 2°43.754 17.9803 0.0687 0.406124 -0.93092
2010-04-23 07:40:17 51°24.691 2°43.75 17.9819 0.0687 0.406124 -0.93092
2010-04-23 07:40:21 51°24.69 2°43.747 17.9841 0.0687 0.406146 -0.965744
2010-04-23 07:40:26 51°24.689 2°43.744 17.9848 0.068804 0.406776 -0.965744
2010-04-23 07:40:31 51°24.689 2°43.741 17.9873 0.0687 0.406146 -0.93092
2010-04-23 07:40:37 51°24.688 2°43.737 17.9887 0.0687 0.406146 -0.965744
2010-04-23 07:40:41 51°24.687 2°43.735 17.9891 0.0687 0.406139 -0.965744
2010-04-23 07:40:46 51°24.686 2°43.733 17.9918 0.0687 0.406139 -0.965744
2010-04-23 07:40:51 51°24.686 2°43.731 17.9908 0.0687 0.406146 -0.965744
2010-04-23 07:40:56 51°24.684 2°43.728 17.9942 0.0687 0.406146 -0.965744
2010-04-23 07:41:01 51°24.683 2°43.727 17.997 0.0687 0.406161 -0.93092
2010-04-23 07:41:06 51°24.682 2°43.725 17.9956 0.0687 0.406168 -0.965744
2010-04-23 07:41:11 51°24.681 2°43.723 17.9961 0.0687 0.406183 -0.93092
2010-04-23 07:41:16 51°24.679 2°43.722 17.9951 0.0687 0.406183 -0.93092
2010-04-23 07:41:21 51°24.678 2°43.72 17.9956 0.0687 0.40619 -0.965744
2010-04-23 07:41:25 51°24.677 2°43.719 17.9966 0.0687 0.406183 -0.93092
2010-04-23 07:41:30 51°24.676 2°43.718 17.9972 0.0687 0.40619 -0.93092
2010-04-23 07:41:35 51°24.675 2°43.716 17.9993 0.0687 0.40619 -0.965744
2010-04-23 07:41:41 51°24.674 2°43.715 18.002 0.0687 0.40619 -0.965744
2010-04-23 07:41:45 51°24.673 2°43.714 18.0026 0.0687 0.40619 -0.965744
2010-04-23 07:41:50 51°24.673 2°43.713 18.0039 0.0687 0.406197 -0.93092
2010-04-23 07:41:55 51°24.672 2°43.711 18.0021 0.0687 0.406197 -0.965744
2010-04-23 07:42:00 51°24.672 2°43.71 18.0057 0.0687 0.406212 -0.965744
2010-04-23 07:42:05 51°24.671 2°43.708 18.0092 0.0687 0.406233 -0.965744
2010-04-23 07:42:10 51°24.671 2°43.707 18.0099 0.0687 0.406241 -0.965744
2010-04-23 07:42:15 51°24.671 2°43.705 18.0118 0.0687 0.406241 -0.965744
2010-04-23 07:42:20 51°24.67 2°43.704 18.0108 0.0687 0.406248 -0.965744
2010-04-23 07:42:25 51°24.671 2°43.703 18.0118 0.0687 0.406262 -0.93092
2010-04-23 07:42:29 51°24.67 2°43.701 18.0185 0.0687 0.40627 -0.965744
2010-04-23 07:42:35 51°24.671 2°43.7 18.0203 0.0687 0.406277 -0.93092
2010-04-23 07:42:40 51°24.671 2°43.699 18.0206 0.0687 0.406284 -0.965744
2010-04-23 07:42:45 51°24.671 2°43.699 18.0213 0.0687 0.406284 -0.965744
2010-04-23 07:42:49 51°24.672 2°43.698 18.0223 0.0687 0.406292 -0.965744
2010-04-23 07:42:55 51°24.672 2°43.698 18.0244 0.0687 0.406313 -0.93092
2010-04-23 07:43:00 51°24.673 2°43.698 18.0224 0.0687 0.406313 -0.93092
2010-04-23 07:43:05 51°24.674 2°43.698 18.0274 0.0687 0.406328 -0.93092
2010-04-23 07:43:09 51°24.674 2°43.698 18.0276 0.0687 0.406328 -0.965744
2010-04-23 07:43:15 51°24.675 2°43.698 18.0275 0.0687 0.406328 -0.965744
2010-04-23 07:43:20 51°24.676 2°43.698 18.0288 0.0687 0.406328 -0.965744
2010-04-23 07:43:25 51°24.677 2°43.698 18.0296 0.0687 0.406342 -0.93092
2010-04-23 07:43:29 51°24.677 2°43.698 18.0305 0.0687 0.40635 -0.93092
2010-04-23 07:43:35 51°24.678 2°43.698 18.0312 0.0687 0.40635 -0.965744
2010-04-23 07:43:40 51°24.678 2°43.698 18.0321 0.0687 0.40635 -0.965744
2010-04-23 07:43:45 51°24.679 2°43.699 18.0352 0.0687 0.40635 -0.965744
2010-04-23 07:43:49 51°24.68 2°43.699 18.0375 0.0687 0.406357 -0.93092
2010-04-23 07:43:55 51°24.681 2°43.699 18.0369 0.0687 0.406364 -0.965744
2010-04-23 07:44:00 51°24.681 2°43.7 18.0355 0.0687 0.406364 -0.93092
2010-04-23 07:44:05 51°24.682 2°43.7 18.039 0.0687 0.406371 -0.965744
2010-04-23 07:44:09 51°24.682 2°43.701 18.0414 0.0687 0.406371 -0.93092
2010-04-23 07:44:15 51°24.683 2°43.701 18.0396 0.0687 0.406371 -0.93092
2010-04-23 07:44:20 51°24.684 2°43.702 18.0418 0.0687 0.406386 -0.93092
2010-04-23 07:44:25 51°24.684 2°43.702 18.0417 0.0687 0.406386 -0.93092
2010-04-23 07:44:29 51°24.685 2°43.703 18.0464 0.0687 0.406393 -0.93092
2010-04-23 07:44:35 51°24.686 2°43.703 18.0439 0.0687 0.406401 -0.896096
2010-04-23 07:44:40 51°24.686 2°43.704 18.0489 0.0687 0.406401 -0.965744
2010-04-23 07:44:45 51°24.687 2°43.704 18.0493 0.0687 0.406401 -0.965744
2010-04-23 07:44:49 51°24.688 2°43.705 18.0515 0.0687 0.406408 -0.93092
2010-04-23 07:44:55 51°24.689 2°43.706 18.0529 0.0687 0.406401 -0.965744
2010-04-23 07:45:00 51°24.689 2°43.707 18.0506 0.0687 0.406415 -0.965744
2010-04-23 07:45:05 51°24.69 2°43.708 18.0557 0.0687 0.406415 -0.965744
2010-04-23 07:45:09 51°24.69 2°43.708 18.0529 0.0687 0.406422 -0.93092
2010-04-23 07:45:15 51°24.691 2°43.709 18.0595 0.0687 0.406422 -0.93092
2010-04-23 07:45:20 51°24.692 2°43.71 18.0536 0.0687 0.406422 -0.965744
2010-04-23 07:45:25 51°24.692 2°43.711 18.0616 0.0687 0.406437 -0.965744
2010-04-23 07:45:29 51°24.693 2°43.711 18.0586 0.0687 0.406437 -0.965744
2010-04-23 07:45:35 51°24.694 2°43.712 18.0634 0.0687 0.406451 -0.965744
2010-04-23 07:45:40 51°24.694 2°43.712 18.0657 0.0687 0.406451 -0.965744
2010-04-23 07:45:45 51°24.695 2°43.712 18.0642 0.0687 0.406451 -0.965744
2010-04-23 07:45:49 51°24.695 2°43.712 18.0657 0.0687 0.406444 -0.965744
2010-04-23 07:45:54 51°24.695 2°43.712 18.0654 0.0687 0.406451 -0.965744
2010-04-23 07:46:00 51°24.695 2°43.712 18.0704 0.0687 0.406466 -0.965744
2010-04-23 07:46:05 51°24.696 2°43.712 18.0686 0.0687 0.406466 -0.965744
2010-04-23 07:46:09 51°24.696 2°43.712 18.0685 0.0687 0.406473 -0.965744
2010-04-23 07:46:15 51°24.696 2°43.712 18.0699 0.0687 0.406473 -0.965744
2010-04-23 07:46:20 51°24.696 2°43.712 18.0733 0.0687 0.406481 -0.965744
2010-04-23 07:46:25 51°24.695 2°43.712 18.0756 0.0687 0.406488 -0.965744
2010-04-23 07:46:29 51°24.695 2°43.712 18.0741 0.0687 0.406495 -0.965744
2010-04-23 07:46:35 51°24.694 2°43.712 18.0775 0.0687 0.406488 -0.965744
2010-04-23 07:46:40 51°24.694 2°43.712 18.0747 0.0687 0.406502 -0.93092
2010-04-23 07:46:45 51°24.693 2°43.712 18.0773 0.0687 0.406502 -0.93092
2010-04-23 07:46:49 51°24.692 2°43.712 18.0795 0.0687 0.40651 -0.965744